Wetterdaten: Donnerstag, 15.02.2018
Datum Zeit Temp. Aussen Temp. o. S. +5cm Feuchte Auss BlattFeu 1 Luftdruck Regen Sonnenschein Regendauer Solar Windben Empfang
15.02.2018 00:00 2,4 C 2,2 C 1,1 C 66 % 0 lf 1012,7 hPa 0,0 l/m 0 min 0 min 0 W/m 36,0 km/h (5 Bft) 95,74 %
15.02.2018 00:02 2,4 C 2,2 C 1,1 C 66 % 0 lf 1012,7 hPa 0,0 l/m 0 min 0 min 0 W/m 38,3 km/h (5 Bft) 97,73 %
15.02.2018 00:04 2,4 C 2,2 C 1,1 C 66 % 0 lf 1012,7 hPa 0,0 l/m 0 min 0 min 0 W/m 45,1 km/h (6 Bft) 95,74 %
15.02.2018 00:08 2,4 C 2,2 C 1,1 C 66 % 0 lf 1012,8 hPa 0,0 l/m 0 min 0 min 0 W/m 31,5 km/h (5 Bft) 94,05 %
15.02.2018 00:10 2,4 C 2,2 C 1,1 C 66 % 0 lf 1012,7 hPa 0,0 l/m 0 min 0 min 0 W/m 42,8 km/h (6 Bft) 93,62 %
15.02.2018 00:12 2,4 C 2,2 C 1,1 C 66 % 0 lf 1012,7 hPa 0,0 l/m 0 min 0 min 0 W/m 33,8 km/h (5 Bft) 93,48 %
15.02.2018 00:14 2,5 C 2,2 C 1,1 C 67 % 0 lf 1012,7 hPa 0,0 l/m 0 min 0 min 0 W/m 45,1 km/h (6 Bft) 97,87 %
15.02.2018 00:16 2,4 C 2,2 C 1,1 C 67 % 0 lf 1012,6 hPa 0,0 l/m 0 min 0 min 0 W/m 42,8 km/h (6 Bft) 95,74 %
15.02.2018 00:18 2,4 C 2,2 C 1,1 C 67 % 0 lf 1012,5 hPa 0,0 l/m 0 min 0 min 0 W/m 38,3 km/h (5 Bft) 97,87 %
15.02.2018 00:20 2,4 C 2,2 C 1,1 C 67 % 0 lf 1012,4 hPa 0,0 l/m 0 min 0 min 0 W/m 27,0 km/h (4 Bft) 94,83 %
15.02.2018 00:22 2,5 C 2,2 C 1,1 C 67 % 0 lf 1012,4 hPa 0,0 l/m 0 min 0 min 0 W/m 38,3 km/h (5 Bft) 100,00 %
15.02.2018 00:24 2,4 C 2,2 C 1,1 C 67 % 0 lf 1012,2 hPa 0,0 l/m 0 min 0 min 0 W/m 40,6 km/h (6 Bft) 97,83 %
15.02.2018 00:26 2,4 C 2,2 C 1,1 C 67 % 0 lf 1012,3 hPa 0,0 l/m 0 min 0 min 0 W/m 38,3 km/h (5 Bft) 93,62 %
15.02.2018 00:28 2,4 C 2,2 C 1,1 C 67 % 0 lf 1012,1 hPa 0,0 l/m 0 min 0 min 0 W/m 36,0 km/h (5 Bft) 95,74 %
15.02.2018 00:30 2,4 C 2,2 C 1,1 C 67 % 0 lf 1012,0 hPa 0,0 l/m 0 min 0 min 0 W/m 38,3 km/h (5 Bft) 97,87 %
15.02.2018 00:32 2,4 C 2,2 C 1,1 C 67 % 0 lf 1012,0 hPa 0,0 l/m 0 min 0 min 0 W/m 36,0 km/h (5 Bft) 93,62 %
15.02.2018 00:34 2,4 C 2,2 C 1,1 C 67 % 0 lf 1011,9 hPa 0,0 l/m 0 min 0 min 0 W/m 38,3 km/h (5 Bft) 93,62 %
15.02.2018 00:36 2,4 C 2,2 C 1,1 C 67 % 0 lf 1011,9 hPa 0,0 l/m 0 min 0 min 0 W/m 36,0 km/h (5 Bft) 97,83 %
15.02.2018 00:38 2,4 C 2,2 C 1,1 C 67 % 0 lf 1011,9 hPa 0,0 l/m 0 min 0 min 0 W/m 38,3 km/h (5 Bft) 93,62 %
15.02.2018 00:40 2,4 C 2,2 C 1,1 C 67 % 0 lf 1012,0 hPa 0,0 l/m 0 min 0 min 0 W/m 40,6 km/h (6 Bft) 95,74 %
15.02.2018 00:42 2,4 C 2,2 C 1,1 C 67 % 0 lf 1011,8 hPa 0,0 l/m 0 min 0 min 0 W/m 33,8 km/h (5 Bft) 95,74 %
15.02.2018 00:44 2,4 C 2,2 C 1,1 C 67 % 0 lf 1011,7 hPa 0,0 l/m 0 min 0 min 0 W/m 36,0 km/h (5 Bft) 95,74 %
15.02.2018 00:46 2,4 C 2,2 C 1,1 C 68 % 0 lf 1011,7 hPa 0,0 l/m 0 min 0 min 0 W/m 42,8 km/h (6 Bft) 95,65 %
15.02.2018 00:48 2,4 C 2,2 C 1,1 C 68 % 0 lf 1011,7 hPa 0,0 l/m 0 min 0 min 0 W/m 38,3 km/h (5 Bft) 95,83 %
15.02.2018 00:50 2,4 C 2,2 C 1,1 C 68 % 0 lf 1011,6 hPa 0,0 l/m 0 min 0 min 0 W/m 38,3 km/h (5 Bft) 93,22 %
15.02.2018 00:52 2,4 C 2,2 C 1,1 C 68 % 0 lf 1011,7 hPa 0,0 l/m 0 min 0 min 0 W/m 45,1 km/h (6 Bft) 94,29 %
15.02.2018 00:54 2,4 C 2,2 C 1,1 C 68 % 0 lf 1011,8 hPa 0,0 l/m 0 min 0 min 0 W/m 45,1 km/h (6 Bft) 95,74 %
15.02.2018 00:56 2,4 C 2,2 C 1,1 C 68 % 0 lf 1011,8 hPa 0,0 l/m 0 min 0 min 0 W/m 36,0 km/h (5 Bft) 95,74 %
15.02.2018 00:58 2,4 C 2,2 C 1,1 C 68 % 0 lf 1011,8 hPa 0,0 l/m 0 min 0 min 0 W/m 49,6 km/h (6 Bft) 93,48 %
15.02.2018 01:00 2,4 C 2,2 C 1,1 C 68 % 0 lf 1011,8 hPa 0,0 l/m 0 min 0 min 0 W/m 45,1 km/h (6 Bft) 95,74 %
15.02.2018 01:02 2,4 C 2,2 C 1,1 C 68 % 0 lf 1011,9 hPa 0,0 l/m 0 min 0 min 0 W/m 40,6 km/h (6 Bft) 93,62 %
15.02.2018 01:04 2,4 C 2,2 C 1,1 C 68 % 0 lf 1011,9 hPa 0,0 l/m 0 min 0 min 0 W/m 36,0 km/h (5 Bft) 97,87 %
15.02.2018 01:06 2,4 C 2,2 C 1,1 C 68 % 0 lf 1011,8 hPa 0,0 l/m 0 min 0 min 0 W/m 47,3 km/h (6 Bft) 95,74 %
15.02.2018 01:08 2,4 C 2,2 C 1,1 C 68 % 0 lf 1011,9 hPa 0,0 l/m 0 min 0 min 0 W/m 38,3 km/h (5 Bft) 97,87 %
15.02.2018 01:10 2,4 C 2,2 C 1,1 C 68 % 0 lf 1011,8 hPa 0,0 l/m 0 min 0 min 0 W/m 47,3 km/h (6 Bft) 100,00 %
15.02.2018 01:12 2,4 C 2,2 C 1,1 C 68 % 0 lf 1011,9 hPa 0,0 l/m 0 min 0 min 0 W/m 36,0 km/h (5 Bft) 97,87 %
15.02.2018 01:14 2,4 C 2,2 C 1,1 C 68 % 0 lf 1011,8 hPa 0,0 l/m 0 min 0 min 0 W/m 45,1 km/h (6 Bft) 100,00 %
15.02.2018 01:16 2,4 C 2,2 C 1,1 C 68 % 0 lf 1011,8 hPa 0,0 l/m 0 min 0 min 0 W/m 31,5 km/h (5 Bft) 100,00 %
15.02.2018 01:18 2,4 C 2,2 C 1,1 C 68 % 0 lf 1011,7 hPa 0,0 l/m 0 min 0 min 0 W/m 42,8 km/h (6 Bft) 97,92 %
15.02.2018 01:20 2,4 C 2,2 C 1,1 C 68 % 0 lf 1011,6 hPa 0,0 l/m 0 min 0 min 0 W/m 42,8 km/h (6 Bft) 100,00 %
15.02.2018 01:22 2,4 C 2,2 C 1,1 C 68 % 0 lf 1011,7 hPa 0,0 l/m 0 min 0 min 0 W/m 33,8 km/h (5 Bft) 100,00 %
15.02.2018 01:24 2,4 C 2,2 C 1,1 C 68 % 0 lf 1011,4 hPa 0,0 l/m 0 min 0 min 0 W/m 42,8 km/h (6 Bft) 95,74 %
15.02.2018 01:26 2,4 C 2,2 C 1,1 C 68 % 0 lf 1011,5 hPa 0,0 l/m 0 min 0 min 0 W/m 40,6 km/h (6 Bft) 97,87 %
15.02.2018 01:28 2,4 C 2,2 C 1,1 C 68 % 0 lf 1011,5 hPa 0,0 l/m 0 min 0 min 0 W/m 36,0 km/h (5 Bft) 100,00 %
15.02.2018 01:30 2,4 C 2,2 C 1,1 C 68 % 0 lf 1011,5 hPa 0,0 l/m 0 min 0 min 0 W/m 38,3 km/h (5 Bft) 97,87 %
15.02.2018 01:32 2,4 C 2,2 C 1,1 C 68 % 0 lf 1011,5 hPa 0,0 l/m 0 min 0 min 0 W/m 38,3 km/h (5 Bft) 100,00 %
15.02.2018 01:34 2,4 C 2,2 C 1,1 C 68 % 0 lf 1011,5 hPa 0,0 l/m 0 min 0 min 0 W/m 40,6 km/h (6 Bft) 100,00 %
15.02.2018 01:36 2,4 C 2,2 C 1,1 C 68 % 0 lf 1011,5 hPa 0,0 l/m 0 min 0 min 0 W/m 27,0 km/h (4 Bft) 100,00 %
15.02.2018 01:38 2,4 C 2,2 C 1,1 C 68 % 0 lf 1011,5 hPa 0,0 l/m 0 min 0 min 0 W/m 29,3 km/h (5 Bft) 100,00 %
15.02.2018 01:40 2,4 C 2,2 C 1,1 C 69 % 0 lf 1011,3 hPa 0,0 l/m 0 min 0 min 0 W/m 29,3 km/h (5 Bft) 97,87 %
15.02.2018 01:42 2,4 C 2,2 C 1,1 C 69 % 0 lf 1011,4 hPa 0,0 l/m 0 min 0 min 0 W/m 38,3 km/h (5 Bft) 95,74 %
15.02.2018 01:44 2,4 C 2,2 C 1,1 C 68 % 0 lf 1011,4 hPa 0,0 l/m 0 min 0 min 0 W/m 40,6 km/h (6 Bft) 97,83 %
15.02.2018 01:46 2,4 C 2,2 C 1,1 C 68 % 0 lf 1011,4 hPa 0,0 l/m 0 min 0 min 0 W/m 36,0 km/h (5 Bft) 95,74 %
15.02.2018 01:48 2,4 C 2,2 C 1,1 C 69 % 0 lf 1011,4 hPa 0,0 l/m 0 min 0 min 0 W/m 36,0 km/h (5 Bft) 95,74 %
15.02.2018 01:50 2,4 C 2,2 C 1,1 C 69 % 0 lf 1011,4 hPa 0,0 l/m 0 min 0 min 0 W/m 33,8 km/h (5 Bft) 94,92 %
15.02.2018 01:52 2,4 C 2,2 C 1,1 C 69 % 0 lf 1011,5 hPa 0,0 l/m 0 min 0 min 0 W/m 40,6 km/h (6 Bft) 97,14 %
15.02.2018 01:54 2,4 C 2,2 C 1,1 C 68 % 0 lf 1011,4 hPa 0,0 l/m 0 min 0 min 0 W/m 36,0 km/h (5 Bft) 95,74 %
15.02.2018 01:56 2,4 C 2,2 C 1,1 C 69 % 0 lf 1011,4 hPa 0,0 l/m 0 min 0 min 0 W/m 36,0 km/h (5 Bft) 97,83 %
15.02.2018 01:58 2,4 C 2,2 C 1,1 C 69 % 0 lf 1011,4 hPa 0,0 l/m 0 min 0 min 0 W/m 33,8 km/h (5 Bft) 93,62 %
15.02.2018 02:00 2,4 C 2,2 C 1,1 C 69 % 0 lf 1011,2 hPa 0,0 l/m 0 min 0 min 0 W/m 36,0 km/h (5 Bft) 95,74 %
15.02.2018 02:02 2,4 C 2,2 C 1,1 C 69 % 0 lf 1011,2 hPa 0,0 l/m 0 min 0 min 0 W/m 40,6 km/h (6 Bft) 93,62 %
15.02.2018 02:04 2,4 C 2,2 C 1,1 C 69 % 0 lf 1011,2 hPa 0,0 l/m 0 min 0 min 0 W/m 38,3 km/h (5 Bft) 93,62 %
15.02.2018 02:06 2,4 C 2,2 C 1,1 C 69 % 0 lf 1011,2 hPa 0,0 l/m 0 min 0 min 0 W/m 33,8 km/h (5 Bft) 95,74 %
15.02.2018 02:08 2,4 C 2,2 C 1,1 C 69 % 0 lf 1011,1 hPa 0,0 l/m 0 min 0 min 0 W/m 42,8 km/h (6 Bft) 93,48 %
15.02.2018 02:10 2,4 C 2,2 C 1,1 C 69 % 0 lf 1011,1 hPa 0,0 l/m 0 min 0 min 0 W/m 36,0 km/h (5 Bft) 95,74 %
15.02.2018 02:12 2,4 C 2,2 C 1,1 C 69 % 0 lf 1011,0 hPa 0,0 l/m 0 min 0 min 0 W/m 38,3 km/h (5 Bft) 95,74 %
15.02.2018 02:14 2,4 C 2,2 C 1,1 C 69 % 0 lf 1010,9 hPa 0,0 l/m 0 min 0 min 0 W/m 42,8 km/h (6 Bft) 93,62 %
15.02.2018 02:16 2,4 C 2,2 C 1,1 C 69 % 0 lf 1010,8 hPa 0,0 l/m 0 min 0 min 0 W/m 42,8 km/h (6 Bft) 93,62 %
15.02.2018 02:18 2,4 C 2,2 C 1,1 C 69 % 0 lf 1010,8 hPa 0,0 l/m 0 min 0 min 0 W/m 47,3 km/h (6 Bft) 93,62 %
15.02.2018 02:20 2,4 C 2,2 C 1,1 C 69 % 0 lf 1010,8 hPa 0,0 l/m 0 min 0 min 0 W/m 38,3 km/h (5 Bft) 91,38 %
15.02.2018 02:22 2,4 C 2,2 C 1,1 C 68 % 0 lf 1010,8 hPa 0,0 l/m 0 min 0 min 0 W/m 40,6 km/h (6 Bft) 88,89 %
15.02.2018 02:24 2,4 C 2,2 C 1,1 C 68 % 0 lf 1010,9 hPa 0,0 l/m 0 min 0 min 0 W/m 40,6 km/h (6 Bft) 95,65 %
15.02.2018 02:26 2,4 C 2,2 C 1,1 C 68 % 0 lf 1010,8 hPa 0,0 l/m 0 min 0 min 0 W/m 49,6 km/h (6 Bft) 89,36 %
15.02.2018 02:28 2,4 C 2,2 C 1,1 C 69 % 0 lf 1010,7 hPa 0,0 l/m 0 min 0 min 0 W/m 38,3 km/h (5 Bft) 91,49 %
15.02.2018 02:30 2,4 C 2,2 C 1,1 C 69 % 0 lf 1010,7 hPa 0,0 l/m 0 min 0 min 0 W/m 29,3 km/h (5 Bft) 91,49 %
15.02.2018 02:32 2,4 C 2,2 C 1,1 C 69 % 0 lf 1010,7 hPa 0,0 l/m 0 min 0 min 0 W/m 40,6 km/h (6 Bft) 91,49 %
15.02.2018 02:34 2,4 C 2,2 C 1,1 C 69 % 0 lf 1010,7 hPa 0,0 l/m 0 min 0 min 0 W/m 38,3 km/h (5 Bft) 91,49 %
15.02.2018 02:36 2,4 C 2,2 C 1,1 C 69 % 0 lf 1010,7 hPa 0,0 l/m 0 min 0 min 0 W/m 29,3 km/h (5 Bft) 95,65 %
15.02.2018 02:38 2,5 C 2,8 C 1,1 C 68 % 0 lf 1010,8 hPa 0,0 l/m 0 min 0 min 0 W/m 27,0 km/h (4 Bft) 95,74 %
15.02.2018 02:40 2,5 C 2,8 C 1,1 C 68 % 0 lf 1010,7 hPa 0,0 l/m 0 min 0 min 0 W/m 33,8 km/h (5 Bft) 93,62 %
15.02.2018 02:42 2,5 C 2,8 C 1,1 C 68 % 0 lf 1010,8 hPa 0,0 l/m 0 min 0 min 0 W/m 40,6 km/h (6 Bft) 95,74 %
15.02.2018 02:44 2,5 C 2,8 C 1,1 C 69 % 0 lf 1010,9 hPa 0,0 l/m 0 min 0 min 0 W/m 40,6 km/h (6 Bft) 95,74 %
15.02.2018 02:46 2,5 C 2,8 C 1,1 C 68 % 0 lf 1011,0 hPa 0,0 l/m 0 min 0 min 0 W/m 40,6 km/h (6 Bft) 95,74 %
15.02.2018 02:48 2,6 C 2,8 C 1,1 C 68 % 0 lf 1010,9 hPa 0,0 l/m 0 min 0 min 0 W/m 36,0 km/h (5 Bft) 97,83 %
15.02.2018 02:50 2,6 C 2,8 C 1,1 C 68 % 0 lf 1011,0 hPa 0,0 l/m 0 min 0 min 0 W/m 31,5 km/h (5 Bft) 89,83 %
15.02.2018 02:52 2,6 C 2,8 C 1,1 C 68 % 0 lf 1010,9 hPa 0,0 l/m 0 min 0 min 0 W/m 38,3 km/h (5 Bft) 97,14 %
15.02.2018 02:54 2,6 C 2,8 C 1,1 C 68 % 0 lf 1010,9 hPa 0,0 l/m 0 min 0 min 0 W/m 36,0 km/h (5 Bft) 95,74 %
15.02.2018 02:56 2,6 C 2,8 C 1,1 C 68 % 0 lf 1010,8 hPa 0,0 l/m 0 min 0 min 0 W/m 31,5 km/h (5 Bft) 97,87 %
15.02.2018 02:58 2,6 C 2,8 C 1,1 C 68 % 0 lf 1010,7 hPa 0,0 l/m 0 min 0 min 0 W/m 36,0 km/h (5 Bft) 97,83 %
15.02.2018 03:00 2,6 C 2,8 C 1,1 C 67 % 0 lf 1010,7 hPa 0,0 l/m 0 min 0 min 0 W/m 31,5 km/h (5 Bft) 97,87 %
15.02.2018 03:02 2,6 C 2,8 C 1,1 C 67 % 0 lf 1010,7 hPa 0,0 l/m 0 min 0 min 0 W/m 36,0 km/h (5 Bft) 97,87 %
15.02.2018 03:04 2,6 C 2,8 C 1,1 C 67 % 0 lf 1010,7 hPa 0,0 l/m 0 min 0 min 0 W/m 27,0 km/h (4 Bft) 97,87 %
15.02.2018 03:06 2,6 C 2,8 C 1,1 C 67 % 0 lf 1010,7 hPa 0,0 l/m 0 min 0 min 0 W/m 42,8 km/h (6 Bft) 97,87 %
15.02.2018 03:08 2,6 C 2,8 C 1,1 C 67 % 0 lf 1010,8 hPa 0,0 l/m 0 min 0 min 0 W/m 36,0 km/h (5 Bft) 100,00 %
15.02.2018 03:10 2,6 C 2,8 C 1,1 C 68 % 0 lf 1010,8 hPa 0,0 l/m 0 min 0 min 0 W/m 40,6 km/h (6 Bft) 100,00 %
15.02.2018 03:12 2,6 C 2,8 C 1,1 C 67 % 0 lf 1010,7 hPa 0,0 l/m 0 min 0 min 0 W/m 38,3 km/h (5 Bft) 100,00 %
15.02.2018 03:14 2,6 C 2,8 C 1,1 C 68 % 0 lf 1010,8 hPa 0,0 l/m 0 min 0 min 0 W/m 36,0 km/h (5 Bft) 100,00 %
15.02.2018 03:16 2,6 C 2,8 C 1,1 C 68 % 0 lf 1010,7 hPa 0,0 l/m 0 min 0 min 0 W/m 42,8 km/h (6 Bft) 100,00 %
15.02.2018 03:18 2,6 C 2,8 C 1,1 C 68 % 0 lf 1010,7 hPa 0,0 l/m 0 min 0 min 0 W/m 36,0 km/h (5 Bft) 100,00 %
15.02.2018 03:20 2,6 C 2,8 C 1,1 C 68 % 0 lf 1010,6 hPa 0,0 l/m 0 min 0 min 0 W/m 36,0 km/h (5 Bft) 98,28 %
15.02.2018 03:22 2,6 C 2,8 C 1,1 C 68 % 0 lf 1010,6 hPa 0,0 l/m 0 min 0 min 0 W/m 38,3 km/h (5 Bft) 100,00 %
15.02.2018 03:24 2,6 C 2,8 C 1,1 C 68 % 0 lf 1010,6 hPa 0,0 l/m 0 min 0 min 0 W/m 31,5 km/h (5 Bft) 100,00 %
15.02.2018 03:26 2,6 C 2,8 C 1,1 C 68 % 0 lf 1010,6 hPa 0,0 l/m 0 min 0 min 0 W/m 31,5 km/h (5 Bft) 97,87 %
15.02.2018 03:28 2,6 C 2,2 C 1,1 C 68 % 0 lf 1010,4 hPa 0,0 l/m 0 min 0 min 0 W/m 33,8 km/h (5 Bft) 100,00 %
15.02.2018 03:30 2,6 C 2,2 C 1,1 C 68 % 0 lf 1010,4 hPa 0,0 l/m 0 min 0 min 0 W/m 31,5 km/h (5 Bft) 95,74 %
15.02.2018 03:32 2,6 C 2,2 C 1,1 C 69 % 0 lf 1010,4 hPa 0,0 l/m 0 min 0 min 0 W/m 29,3 km/h (5 Bft) 100,00 %
15.02.2018 03:34 2,6 C 2,2 C 1,1 C 69 % 0 lf 1010,3 hPa 0,0 l/m 0 min 0 min 0 W/m 36,0 km/h (5 Bft) 100,00 %
15.02.2018 03:36 2,5 C 2,2 C 1,1 C 69 % 0 lf 1010,5 hPa 0,0 l/m 0 min 0 min 0 W/m 36,0 km/h (5 Bft) 97,87 %
15.02.2018 03:38 2,5 C 2,2 C 0,6 C 70 % 0 lf 1010,4 hPa 0,0 l/m 0 min 0 min 0 W/m 36,0 km/h (5 Bft) 100,00 %
15.02.2018 03:40 2,5 C 2,2 C 0,6 C 71 % 3 lf 1010,5 hPa 0,0 l/m 0 min 0 min 0 W/m 31,5 km/h (5 Bft) 100,00 %
15.02.2018 03:42 2,4 C 2,2 C 0,6 C 72 % 2 lf 1010,4 hPa 0,0 l/m 0 min 0 min 0 W/m 31,5 km/h (5 Bft) 93,62 %
15.02.2018 03:44 2,4 C 1,7 C 0,6 C 72 % 0 lf 1010,4 hPa 0,0 l/m 0 min 0 min 0 W/m 40,6 km/h (6 Bft) 97,87 %
15.02.2018 03:46 2,4 C 1,7 C 0,0 C 73 % 9 lf 1010,3 hPa 0,0 l/m 0 min 0 min 0 W/m 36,0 km/h (5 Bft) 100,00 %
15.02.2018 03:48 2,3 C 1,7 C 0,0 C 73 % 8 lf 1010,3 hPa 0,0 l/m 0 min 0 min 0 W/m 38,3 km/h (5 Bft) 100,00 %
15.02.2018 03:50 2,3 C 1,7 C 0,0 C 74 % 3 lf 1010,4 hPa 0,0 l/m 0 min 0 min 0 W/m 40,6 km/h (6 Bft) 100,00 %
15.02.2018 03:52 2,2 C 1,7 C 0,0 C 74 % 1 lf 1010,3 hPa 0,0 l/m 0 min 0 min 0 W/m 33,8 km/h (5 Bft) 100,00 %
15.02.2018 03:54 2,2 C 1,1 C 0,0 C 75 % 3 lf 1010,3 hPa 0,0 l/m 0 min 0 min 0 W/m 33,8 km/h (5 Bft) 100,00 %
15.02.2018 03:56 2,1 C 1,1 C -0,6 C 76 % 4 lf 1010,3 hPa 0,0 l/m 0 min 0 min 0 W/m 29,3 km/h (5 Bft) 100,00 %
15.02.2018 03:58 2,0 C 1,1 C -0,6 C 77 % 6 lf 1010,3 hPa 0,0 l/m 0 min 0 min 0 W/m 40,6 km/h (6 Bft) 97,83 %
15.02.2018 04:00 1,9 C 0,6 C -0,6 C 78 % 7 lf 1010,4 hPa 0,0 l/m 0 min 0 min 0 W/m 33,8 km/h (5 Bft) 93,62 %
15.02.2018 04:05 1,9 C 0,6 C -0,6 C 78 % 7 lf 1010,4 hPa 0,0 l/m 0 min 0 min 0 W/m 29,3 km/h (5 Bft) 3,51 %
15.02.2018 04:10 1,4 C 0,0 C -1,1 C 83 % 12 lf 1010,3 hPa 0,0 l/m 0 min 0 min 0 W/m 38,3 km/h (5 Bft) 97,92 %
15.02.2018 04:12 1,3 C 0,0 C -1,1 C 83 % 8 lf 1010,3 hPa 0,0 l/m 0 min 0 min 0 W/m 27,0 km/h (4 Bft) 97,87 %
15.02.2018 04:14 1,2 C 0,0 C -1,1 C 84 % 6 lf 1010,3 hPa 0,0 l/m 0 min 0 min 0 W/m 38,3 km/h (5 Bft) 97,87 %
15.02.2018 04:16 1,1 C 0,0 C -1,1 C 84 % 5 lf 1010,2 hPa 0,0 l/m 0 min 2 min 0 W/m 29,3 km/h (5 Bft) 95,65 %
15.02.2018 04:18 1,1 C 0,0 C -1,1 C 85 % 4 lf 1010,2 hPa 0,0 l/m 0 min 0 min 0 W/m 31,5 km/h (5 Bft) 93,62 %
15.02.2018 04:20 1,0 C 0,0 C -1,1 C 85 % 4 lf 1010,2 hPa 0,0 l/m 0 min 2 min 0 W/m 42,8 km/h (6 Bft) 97,87 %
15.02.2018 04:22 0,9 C 0,0 C -1,1 C 85 % 3 lf 1010,2 hPa 0,0 l/m 0 min 0 min 0 W/m 36,0 km/h (5 Bft) 97,87 %
15.02.2018 04:24 0,9 C 0,0 C -1,1 C 86 % 9 lf 1010,2 hPa 0,0 l/m 0 min 0 min 0 W/m 31,5 km/h (5 Bft) 93,62 %
15.02.2018 04:26 0,8 C 0,0 C -1,1 C 86 % 10 lf 1010,2 hPa 0,0 l/m 0 min 0 min 0 W/m 27,0 km/h (4 Bft) 93,62 %
15.02.2018 04:28 0,8 C 0,0 C -1,1 C 86 % 13 lf 1010,3 hPa 0,0 l/m 0 min 0 min 0 W/m 29,3 km/h (5 Bft) 91,30 %
15.02.2018 04:30 0,7 C 0,0 C -1,1 C 87 % 13 lf 1010,1 hPa 0,0 l/m 0 min 0 min 0 W/m 29,3 km/h (5 Bft) 93,62 %
15.02.2018 04:32 0,7 C 0,0 C -1,1 C 87 % 13 lf 1010,1 hPa 0,0 l/m 0 min 0 min 0 W/m 31,5 km/h (5 Bft) 95,74 %
15.02.2018 04:34 0,7 C 0,0 C -1,1 C 87 % 14 lf 1010,1 hPa 0,0 l/m 0 min 0 min 0 W/m 31,5 km/h (5 Bft) 93,62 %
15.02.2018 04:36 0,6 C 0,0 C -1,1 C 88 % 14 lf 1010,0 hPa 0,0 l/m 0 min 0 min 0 W/m 27,0 km/h (4 Bft) 91,49 %
15.02.2018 04:38 0,6 C 0,0 C -1,1 C 88 % 14 lf 1010,1 hPa 0,0 l/m 0 min 0 min 0 W/m 33,8 km/h (5 Bft) 91,30 %
15.02.2018 04:40 0,5 C 0,0 C -1,1 C 88 % 14 lf 1010,1 hPa 0,0 l/m 0 min 0 min 0 W/m 38,3 km/h (5 Bft) 91,49 %
15.02.2018 04:42 0,5 C 0,0 C -1,1 C 89 % 15 lf 1010,1 hPa 0,0 l/m 0 min 0 min 0 W/m 33,8 km/h (5 Bft) 91,49 %
15.02.2018 04:44 0,5 C 0,0 C -1,1 C 89 % 15 lf 1010,2 hPa 0,0 l/m 0 min 0 min 0 W/m 24,8 km/h (4 Bft) 87,23 %
15.02.2018 04:46 0,5 C 0,0 C -1,1 C 89 % 15 lf 1010,2 hPa 0,0 l/m 0 min 0 min 0 W/m 33,8 km/h (5 Bft) 91,49 %
15.02.2018 04:48 0,5 C 0,0 C -1,1 C 90 % 15 lf 1010,2 hPa 0,0 l/m 0 min 0 min 0 W/m 31,5 km/h (5 Bft) 91,49 %
15.02.2018 04:50 0,5 C 0,0 C -1,1 C 90 % 15 lf 1010,1 hPa 0,0 l/m 0 min 0 min 0 W/m 40,6 km/h (6 Bft) 91,30 %
15.02.2018 04:52 0,5 C 0,0 C -1,1 C 90 % 15 lf 1010,2 hPa 0,0 l/m 0 min 0 min 0 W/m 33,8 km/h (5 Bft) 91,49 %
15.02.2018 04:54 0,4 C 0,0 C -1,1 C 90 % 15 lf 1010,2 hPa 0,0 l/m 0 min 0 min 0 W/m 33,8 km/h (5 Bft) 93,62 %
15.02.2018 04:56 0,4 C 0,0 C -1,1 C 91 % 15 lf 1010,2 hPa 0,0 l/m 0 min 0 min 0 W/m 33,8 km/h (5 Bft) 89,36 %
15.02.2018 04:58 0,4 C -0,6 C -1,1 C 91 % 15 lf 1010,2 hPa 0,0 l/m 0 min 0 min 0 W/m 22,5 km/h (4 Bft) 93,62 %
15.02.2018 05:00 0,4 C 0,0 C -1,1 C 91 % 15 lf 1010,2 hPa 0,0 l/m 0 min 0 min 0 W/m 31,5 km/h (5 Bft) 91,49 %
15.02.2018 05:02 0,3 C 0,0 C -1,1 C 91 % 15 lf 1010,2 hPa 0,0 l/m 0 min 2 min 0 W/m 36,0 km/h (5 Bft) 93,62 %
15.02.2018 05:04 0,3 C 0,0 C -1,1 C 92 % 15 lf 1010,2 hPa 0,0 l/m 0 min 0 min 0 W/m 33,8 km/h (5 Bft) 93,62 %
15.02.2018 05:06 0,3 C 0,0 C -1,1 C 92 % 15 lf 1010,1 hPa 0,0 l/m 0 min 0 min 0 W/m 31,5 km/h (5 Bft) 93,62 %
15.02.2018 05:08 0,3 C 0,0 C -1,1 C 92 % 15 lf 1010,1 hPa 0,0 l/m 0 min 2 min 0 W/m 36,0 km/h (5 Bft) 91,49 %
15.02.2018 05:10 0,3 C 0,0 C -1,1 C 92 % 15 lf 1010,1 hPa 0,0 l/m 0 min 2 min 0 W/m 33,8 km/h (5 Bft) 93,62 %
15.02.2018 05:12 0,3 C 0,0 C -1,1 C 92 % 15 lf 1010,0 hPa 0,0 l/m 0 min 2 min 0 W/m 31,5 km/h (5 Bft) 95,74 %
15.02.2018 05:14 0,3 C 0,0 C -1,1 C 92 % 15 lf 1010,1 hPa 0,0 l/m 0 min 0 min 0 W/m 31,5 km/h (5 Bft) 91,30 %
15.02.2018 05:16 0,3 C 0,0 C -1,1 C 93 % 15 lf 1010,0 hPa 0,0 l/m 0 min 0 min 0 W/m 31,5 km/h (5 Bft) 95,74 %
15.02.2018 05:18 0,3 C 0,0 C -1,1 C 93 % 15 lf 1009,8 hPa 0,0 l/m 0 min 0 min 0 W/m 31,5 km/h (5 Bft) 91,49 %
15.02.2018 05:20 0,3 C 0,0 C -1,1 C 93 % 15 lf 1009,6 hPa 0,0 l/m 0 min 0 min 0 W/m 31,5 km/h (5 Bft) 93,62 %
15.02.2018 05:22 0,3 C 0,0 C -1,1 C 93 % 15 lf 1009,6 hPa 0,0 l/m 0 min 0 min 0 W/m 38,3 km/h (5 Bft) 97,87 %
15.02.2018 05:24 0,2 C 0,0 C -1,1 C 93 % 15 lf 1009,5 hPa 0,0 l/m 0 min 0 min 0 W/m 49,6 km/h (6 Bft) 97,87 %
15.02.2018 05:26 0,2 C 0,0 C -1,1 C 93 % 15 lf 1009,6 hPa 0,0 l/m 0 min 0 min 0 W/m 40,6 km/h (6 Bft) 97,83 %
15.02.2018 05:28 0,2 C 0,0 C -1,1 C 93 % 15 lf 1009,4 hPa 0,0 l/m 0 min 0 min 0 W/m 49,6 km/h (6 Bft) 100,00 %
15.02.2018 05:30 0,2 C 0,0 C -1,1 C 93 % 15 lf 1009,5 hPa 0,0 l/m 0 min 0 min 0 W/m 27,0 km/h (4 Bft) 97,87 %
15.02.2018 05:32 0,2 C 0,0 C -1,1 C 93 % 15 lf 1009,6 hPa 0,0 l/m 0 min 2 min 0 W/m 31,5 km/h (5 Bft) 97,87 %
15.02.2018 05:34 0,2 C 0,0 C -1,1 C 94 % 15 lf 1009,5 hPa 0,0 l/m 0 min 0 min 0 W/m 38,3 km/h (5 Bft) 95,74 %
15.02.2018 05:35 0,2 C 0,0 C -1,1 C 94 % 15 lf 1009,5 hPa 0,0 l/m 0 min 0 min 0 W/m 38,3 km/h (5 Bft) 100,00 %
15.02.2018 05:40 0,2 C 0,0 C -1,1 C 94 % 15 lf 1009,6 hPa 0,0 l/m 0 min 5 min 0 W/m 36,0 km/h (5 Bft) 95,83 %
15.02.2018 05:42 0,2 C 0,0 C -1,1 C 94 % 15 lf 1009,6 hPa 0,0 l/m 0 min 2 min 0 W/m 47,3 km/h (6 Bft) 100,00 %
15.02.2018 05:44 0,2 C 0,0 C -1,1 C 94 % 15 lf 1009,7 hPa 0,0 l/m 0 min 2 min 0 W/m 33,8 km/h (5 Bft) 97,87 %
15.02.2018 05:46 0,2 C 0,0 C -1,1 C 94 % 15 lf 1009,6 hPa 0,0 l/m 0 min 0 min 0 W/m 38,3 km/h (5 Bft) 100,00 %
15.02.2018 05:48 0,2 C 0,0 C -1,1 C 94 % 15 lf 1009,7 hPa 0,0 l/m 0 min 0 min 0 W/m 40,6 km/h (6 Bft) 100,00 %
15.02.2018 05:50 0,1 C 0,0 C -1,1 C 94 % 15 lf 1009,6 hPa 0,0 l/m 0 min 2 min 0 W/m 29,3 km/h (5 Bft) 100,00 %
15.02.2018 05:52 0,1 C 0,0 C -1,1 C 94 % 15 lf 1009,5 hPa 0,0 l/m 0 min 0 min 0 W/m 22,5 km/h (4 Bft) 100,00 %
15.02.2018 05:54 0,1 C 0,0 C -1,1 C 94 % 15 lf 1009,6 hPa 0,0 l/m 0 min 0 min 0 W/m 31,5 km/h (5 Bft) 100,00 %
15.02.2018 05:56 0,1 C 0,0 C -1,1 C 94 % 15 lf 1009,5 hPa 0,0 l/m 0 min 0 min 0 W/m 38,3 km/h (5 Bft) 97,87 %
15.02.2018 05:58 0,1 C -0,6 C -1,1 C 94 % 15 lf 1009,5 hPa 0,0 l/m 0 min 0 min 0 W/m 38,3 km/h (5 Bft) 95,74 %
15.02.2018 06:00 0,1 C -0,6 C -1,1 C 94 % 15 lf 1009,4 hPa 0,0 l/m 0 min 2 min 0 W/m 38,3 km/h (5 Bft) 100,00 %
15.02.2018 06:02 0,1 C -0,6 C -1,1 C 95 % 15 lf 1009,4 hPa 0,0 l/m 0 min 2 min 0 W/m 36,0 km/h (5 Bft) 97,96 %
15.02.2018 06:04 0,1 C -0,6 C -1,1 C 94 % 15 lf 1009,5 hPa 0,0 l/m 0 min 0 min 0 W/m 33,8 km/h (5 Bft) 95,74 %
15.02.2018 06:08 0,1 C 0,0 C -1,1 C 94 % 15 lf 1009,4 hPa 0,0 l/m 0 min 0 min 0 W/m 38,3 km/h (5 Bft) 98,80 %
15.02.2018 06:10 0,1 C 0,0 C -1,1 C 95 % 15 lf 1009,4 hPa 0,0 l/m 0 min 2 min 0 W/m 33,8 km/h (5 Bft) 100,00 %
15.02.2018 06:12 0,1 C 0,0 C -1,1 C 95 % 15 lf 1009,5 hPa 0,0 l/m 0 min 2 min 0 W/m 40,6 km/h (6 Bft) 100,00 %
15.02.2018 06:14 0,1 C 0,0 C -1,1 C 95 % 15 lf 1009,5 hPa 0,0 l/m 0 min 0 min 0 W/m 31,5 km/h (5 Bft) 97,87 %
15.02.2018 06:16 0,1 C 0,0 C -1,1 C 95 % 15 lf 1009,5 hPa 0,0 l/m 0 min 0 min 0 W/m 31,5 km/h (5 Bft) 100,00 %
15.02.2018 06:18 0,1 C 0,0 C -1,1 C 95 % 15 lf 1009,4 hPa 0,0 l/m 0 min 2 min 0 W/m 36,0 km/h (5 Bft) 97,87 %
15.02.2018 06:20 0,1 C 0,0 C -1,1 C 95 % 15 lf 1009,5 hPa 0,0 l/m 0 min 2 min 0 W/m 36,0 km/h (5 Bft) 94,83 %
15.02.2018 06:22 0,1 C 0,0 C -1,1 C 95 % 15 lf 1009,5 hPa 0,0 l/m 0 min 2 min 0 W/m 42,8 km/h (6 Bft) 100,00 %
15.02.2018 06:24 0,1 C 0,0 C -1,1 C 95 % 15 lf 1009,4 hPa 0,0 l/m 0 min 2 min 0 W/m 33,8 km/h (5 Bft) 97,87 %
15.02.2018 06:26 0,1 C 0,0 C -1,1 C 95 % 15 lf 1009,4 hPa 0,0 l/m 0 min 0 min 0 W/m 29,3 km/h (5 Bft) 95,74 %
15.02.2018 06:28 0,2 C 0,0 C -1,1 C 95 % 15 lf 1009,4 hPa 0,0 l/m 0 min 0 min 0 W/m 31,5 km/h (5 Bft) 97,87 %
15.02.2018 06:30 0,2 C 0,0 C -1,1 C 95 % 15 lf 1009,4 hPa 0,0 l/m 0 min 0 min 0 W/m 36,0 km/h (5 Bft) 97,83 %
15.02.2018 06:32 0,2 C 0,0 C -1,1 C 95 % 15 lf 1009,3 hPa 0,0 l/m 0 min 0 min 0 W/m 36,0 km/h (5 Bft) 98,18 %
15.02.2018 06:34 0,2 C 0,0 C -1,1 C 95 % 15 lf 1009,3 hPa 0,0 l/m 0 min 0 min 0 W/m 33,8 km/h (5 Bft) 95,74 %
15.02.2018 06:36 0,2 C 0,0 C -1,1 C 95 % 15 lf 1009,2 hPa 0,0 l/m 0 min 0 min 0 W/m 36,0 km/h (5 Bft) 95,74 %
15.02.2018 06:38 0,2 C 0,0 C -1,1 C 95 % 15 lf 1009,2 hPa 0,0 l/m 0 min 0 min 0 W/m 45,1 km/h (6 Bft) 97,87 %
15.02.2018 06:40 0,2 C 0,0 C -1,1 C 95 % 15 lf 1009,2 hPa 0,0 l/m 0 min 0 min 0 W/m 40,6 km/h (6 Bft) 97,87 %
15.02.2018 06:42 0,2 C 0,0 C -1,1 C 95 % 15 lf 1009,2 hPa 0,0 l/m 0 min 2 min 0 W/m 31,5 km/h (5 Bft) 95,65 %
15.02.2018 06:44 0,2 C 0,0 C -1,1 C 95 % 15 lf 1009,1 hPa 0,0 l/m 0 min 2 min 0 W/m 33,8 km/h (5 Bft) 97,87 %
15.02.2018 06:46 0,2 C 0,0 C -1,1 C 95 % 15 lf 1009,2 hPa 0,0 l/m 0 min 2 min 0 W/m 36,0 km/h (5 Bft) 95,74 %
15.02.2018 06:48 0,2 C 0,0 C -1,1 C 95 % 15 lf 1009,1 hPa 0,0 l/m 0 min 0 min 0 W/m 36,0 km/h (5 Bft) 97,87 %
15.02.2018 06:50 0,2 C 0,0 C -1,1 C 95 % 15 lf 1009,1 hPa 0,0 l/m 0 min 2 min 0 W/m 31,5 km/h (5 Bft) 100,00 %
15.02.2018 06:52 0,2 C 0,0 C -1,1 C 95 % 15 lf 1009,1 hPa 0,0 l/m 0 min 0 min 0 W/m 38,3 km/h (5 Bft) 100,00 %
15.02.2018 06:54 0,2 C 0,0 C -1,1 C 95 % 15 lf 1009,0 hPa 0,0 l/m 0 min 2 min 0 W/m 40,6 km/h (6 Bft) 100,00 %
15.02.2018 06:56 0,2 C 0,0 C -1,1 C 95 % 15 lf 1009,0 hPa 0,0 l/m 0 min 2 min 0 W/m 45,1 km/h (6 Bft) 95,74 %
15.02.2018 06:58 0,2 C 0,0 C -1,1 C 95 % 15 lf 1009,1 hPa 0,0 l/m 0 min 2 min 0 W/m 40,6 km/h (6 Bft) 100,00 %
15.02.2018 07:00 0,2 C 0,0 C -1,1 C 95 % 15 lf 1009,0 hPa 0,0 l/m 0 min 2 min 0 W/m 38,3 km/h (5 Bft) 100,00 %
15.02.2018 07:02 0,2 C 0,0 C -1,1 C 96 % 15 lf 1008,8 hPa 0,0 l/m 0 min 2 min 0 W/m 36,0 km/h (5 Bft) 97,87 %
15.02.2018 07:04 0,2 C 0,0 C -1,1 C 96 % 15 lf 1008,9 hPa 0,0 l/m 0 min 2 min 0 W/m 47,3 km/h (6 Bft) 97,83 %
15.02.2018 07:08 0,2 C 0,0 C -1,1 C 96 % 15 lf 1008,8 hPa 0,0 l/m 0 min 4 min 0 W/m 45,1 km/h (6 Bft) 97,89 %
15.02.2018 07:10 0,2 C 0,0 C -1,1 C 96 % 15 lf 1009,0 hPa 0,0 l/m 0 min 2 min 0 W/m 40,6 km/h (6 Bft) 100,00 %
15.02.2018 07:12 0,2 C 0,0 C -1,1 C 96 % 15 lf 1008,8 hPa 0,0 l/m 0 min 2 min 0 W/m 40,6 km/h (6 Bft) 97,87 %
15.02.2018 07:14 0,2 C 0,0 C -1,1 C 96 % 15 lf 1008,9 hPa 0,0 l/m 0 min 2 min 0 W/m 49,6 km/h (6 Bft) 95,74 %
15.02.2018 07:16 0,2 C 0,0 C -1,1 C 96 % 15 lf 1009,0 hPa 0,0 l/m 0 min 2 min 0 W/m 54,1 km/h (7 Bft) 95,65 %
15.02.2018 07:18 0,2 C 0,0 C -1,1 C 96 % 15 lf 1008,9 hPa 0,0 l/m 0 min 2 min 0 W/m 42,8 km/h (6 Bft) 95,74 %
15.02.2018 07:20 0,2 C 0,0 C -1,1 C 96 % 15 lf 1009,0 hPa 0,0 l/m 0 min 2 min 0 W/m 45,1 km/h (6 Bft) 97,87 %
15.02.2018 07:22 0,2 C 0,0 C -1,1 C 96 % 15 lf 1009,1 hPa 0,0 l/m 0 min 2 min 0 W/m 51,8 km/h (7 Bft) 96,00 %
15.02.2018 07:24 0,2 C 0,0 C -1,1 C 96 % 15 lf 1009,0 hPa 0,0 l/m 0 min 2 min 0 W/m 45,1 km/h (6 Bft) 95,74 %
15.02.2018 07:26 0,2 C 0,0 C -1,1 C 96 % 15 lf 1008,9 hPa 0,0 l/m 0 min 2 min 0 W/m 33,8 km/h (5 Bft) 97,83 %
15.02.2018 07:28 0,2 C 0,0 C -1,1 C 96 % 15 lf 1008,9 hPa 0,0 l/m 0 min 2 min 0 W/m 42,8 km/h (6 Bft) 93,62 %
15.02.2018 07:30 0,2 C 0,0 C -1,1 C 96 % 15 lf 1008,9 hPa 0,0 l/m 0 min 2 min 0 W/m 33,8 km/h (5 Bft) 95,74 %
15.02.2018 07:32 0,2 C 0,0 C -1,1 C 96 % 15 lf 1009,0 hPa 0,0 l/m 0 min 2 min 0 W/m 38,3 km/h (5 Bft) 94,44 %
15.02.2018 07:34 0,2 C 0,0 C -1,1 C 96 % 15 lf 1008,9 hPa 0,0 l/m 0 min 2 min 0 W/m 36,0 km/h (5 Bft) 95,74 %
15.02.2018 07:36 0,2 C 0,0 C -1,1 C 96 % 15 lf 1008,9 hPa 0,0 l/m 0 min 2 min 0 W/m 33,8 km/h (5 Bft) 95,74 %
15.02.2018 07:38 0,2 C 0,0 C -1,1 C 96 % 15 lf 1008,9 hPa 0,0 l/m 0 min 2 min 0 W/m 33,8 km/h (5 Bft) 91,49 %
15.02.2018 07:40 0,2 C 0,0 C -1,1 C 96 % 15 lf 1008,9 hPa 0,0 l/m 0 min 2 min 0 W/m 36,0 km/h (5 Bft) 95,74 %
15.02.2018 07:42 0,2 C 0,0 C -1,1 C 96 % 15 lf 1009,0 hPa 0,0 l/m 0 min 2 min 0 W/m 45,1 km/h (6 Bft) 95,65 %
15.02.2018 07:44 0,2 C 0,0 C -1,1 C 96 % 15 lf 1009,0 hPa 0,0 l/m 0 min 2 min 0 W/m 33,8 km/h (5 Bft) 93,62 %
15.02.2018 07:46 0,2 C 0,0 C -1,1 C 96 % 15 lf 1008,8 hPa 0,0 l/m 0 min 2 min 0 W/m 45,1 km/h (6 Bft) 93,62 %
15.02.2018 07:48 0,2 C 0,0 C -1,1 C 96 % 15 lf 1008,9 hPa 0,0 l/m 0 min 2 min 0 W/m 45,1 km/h (6 Bft) 95,74 %
15.02.2018 07:50 0,2 C 0,0 C -1,1 C 96 % 15 lf 1009,0 hPa 0,0 l/m 0 min 2 min 0 W/m 33,8 km/h (5 Bft) 98,28 %
15.02.2018 07:52 0,2 C 0,0 C -1,1 C 96 % 15 lf 1009,1 hPa 0,0 l/m 0 min 2 min 0 W/m 36,0 km/h (5 Bft) 91,43 %
15.02.2018 07:54 0,2 C 0,0 C -1,1 C 96 % 15 lf 1009,0 hPa 0,0 l/m 0 min 2 min 0 W/m 42,8 km/h (6 Bft) 94,34 %
15.02.2018 07:56 0,2 C 0,0 C -1,1 C 96 % 15 lf 1009,1 hPa 0,0 l/m 0 min 2 min 0 W/m 47,3 km/h (6 Bft) 93,62 %
15.02.2018 07:58 0,2 C 0,0 C -1,1 C 96 % 15 lf 1009,1 hPa 0,0 l/m 0 min 2 min 0 W/m 38,3 km/h (5 Bft) 97,56 %
15.02.2018 08:00 0,2 C 0,0 C -1,1 C 96 % 15 lf 1009,0 hPa 0,0 l/m 0 min 2 min 0 W/m 40,6 km/h (6 Bft) 97,87 %
15.02.2018 08:02 0,2 C 0,0 C -1,1 C 96 % 15 lf 1009,0 hPa 0,0 l/m 0 min 2 min 1 W/m 31,5 km/h (5 Bft) 93,75 %
15.02.2018 08:04 0,2 C 0,0 C -1,1 C 96 % 15 lf 1009,1 hPa 0,0 l/m 0 min 2 min 5 W/m 29,3 km/h (5 Bft) 89,13 %
15.02.2018 08:06 0,2 C 0,0 C -1,1 C 96 % 15 lf 1009,1 hPa 0,0 l/m 0 min 2 min 5 W/m 31,5 km/h (5 Bft) 95,74 %
15.02.2018 08:08 0,2 C 0,0 C -1,1 C 96 % 15 lf 1009,1 hPa 0,0 l/m 0 min 2 min 5 W/m 49,6 km/h (6 Bft) 93,62 %
15.02.2018 08:10 0,2 C 0,0 C -1,1 C 96 % 15 lf 1009,1 hPa 0,0 l/m 0 min 2 min 5 W/m 36,0 km/h (5 Bft) 95,74 %
15.02.2018 08:12 0,2 C 0,0 C -1,1 C 96 % 15 lf 1009,0 hPa 0,0 l/m 0 min 2 min 5 W/m 27,0 km/h (4 Bft) 93,62 %
15.02.2018 08:14 0,3 C 0,0 C -1,1 C 96 % 15 lf 1009,1 hPa 0,0 l/m 0 min 0 min 5 W/m 47,3 km/h (6 Bft) 93,62 %
15.02.2018 08:16 0,3 C 0,0 C -1,1 C 96 % 15 lf 1009,0 hPa 0,0 l/m 0 min 2 min 7 W/m 36,0 km/h (5 Bft) 93,48 %
15.02.2018 08:18 0,3 C 0,0 C -1,1 C 96 % 15 lf 1009,0 hPa 0,0 l/m 0 min 2 min 8 W/m 45,1 km/h (6 Bft) 93,62 %
15.02.2018 08:20 0,3 C 0,0 C -1,1 C 96 % 15 lf 1009,0 hPa 0,0 l/m 0 min 2 min 10 W/m 31,5 km/h (5 Bft) 91,49 %
15.02.2018 08:22 0,3 C 0,0 C -1,1 C 96 % 15 lf 1009,1 hPa 0,0 l/m 0 min 2 min 11 W/m 36,0 km/h (5 Bft) 95,74 %
15.02.2018 08:24 0,3 C 0,0 C -1,1 C 96 % 15 lf 1009,1 hPa 0,0 l/m 0 min 2 min 12 W/m 27,0 km/h (4 Bft) 93,62 %
15.02.2018 08:26 0,3 C 0,0 C -1,1 C 96 % 15 lf 1009,1 hPa 0,0 l/m 0 min 2 min 12 W/m 31,5 km/h (5 Bft) 93,62 %
15.02.2018 08:28 0,3 C 0,0 C -1,1 C 96 % 15 lf 1009,1 hPa 0,0 l/m 0 min 2 min 14 W/m 33,8 km/h (5 Bft) 93,48 %
15.02.2018 08:30 0,3 C 0,0 C -1,1 C 96 % 15 lf 1009,1 hPa 0,0 l/m 0 min 2 min 18 W/m 38,3 km/h (5 Bft) 93,62 %
15.02.2018 08:32 0,3 C 0,0 C -1,1 C 96 % 15 lf 1009,1 hPa 0,0 l/m 0 min 2 min 19 W/m 45,1 km/h (6 Bft) 94,12 %
15.02.2018 08:34 0,3 C 0,0 C -1,1 C 96 % 15 lf 1009,1 hPa 0,0 l/m 0 min 2 min 19 W/m 31,5 km/h (5 Bft) 95,74 %
15.02.2018 08:36 0,3 C 0,0 C -1,1 C 96 % 15 lf 1009,1 hPa 0,0 l/m 0 min 2 min 19 W/m 36,0 km/h (5 Bft) 97,87 %
15.02.2018 08:38 0,4 C 0,0 C -1,1 C 96 % 15 lf 1009,1 hPa 0,0 l/m 0 min 2 min 21 W/m 31,5 km/h (5 Bft) 97,83 %
15.02.2018 08:40 0,4 C 0,0 C -1,1 C 96 % 15 lf 1009,1 hPa 0,0 l/m 0 min 2 min 23 W/m 24,8 km/h (4 Bft) 95,74 %
15.02.2018 08:42 0,4 C 0,0 C -1,1 C 96 % 15 lf 1009,1 hPa 0,0 l/m 0 min 2 min 23 W/m 38,3 km/h (5 Bft) 97,87 %
15.02.2018 08:44 0,4 C 0,0 C -1,1 C 96 % 15 lf 1009,2 hPa 0,0 l/m 0 min 2 min 23 W/m 33,8 km/h (5 Bft) 93,62 %
15.02.2018 08:46 0,4 C 0,0 C -1,1 C 96 % 15 lf 1009,2 hPa 0,0 l/m 0 min 0 min 23 W/m 33,8 km/h (5 Bft) 97,87 %
15.02.2018 08:48 0,4 C 0,0 C -1,1 C 96 % 15 lf 1009,3 hPa 0,0 l/m 0 min 2 min 26 W/m 27,0 km/h (4 Bft) 97,87 %
15.02.2018 08:50 0,5 C 0,0 C -1,1 C 96 % 15 lf 1009,3 hPa 0,0 l/m 0 min 2 min 29 W/m 29,3 km/h (5 Bft) 97,83 %
15.02.2018 08:52 0,5 C 0,0 C -1,1 C 96 % 15 lf 1009,3 hPa 0,0 l/m 0 min 0 min 30 W/m 31,5 km/h (5 Bft) 97,87 %
15.02.2018 08:54 0,5 C 0,0 C -1,1 C 96 % 15 lf 1009,3 hPa 0,0 l/m 0 min 0 min 32 W/m 22,5 km/h (4 Bft) 91,49 %
15.02.2018 08:56 0,5 C 0,0 C -1,1 C 96 % 15 lf 1009,2 hPa 0,0 l/m 0 min 2 min 32 W/m 29,3 km/h (5 Bft) 95,74 %
15.02.2018 08:58 0,5 C 0,0 C -1,1 C 96 % 15 lf 1009,2 hPa 0,0 l/m 0 min 2 min 34 W/m 27,0 km/h (4 Bft) 97,87 %
15.02.2018 09:00 0,5 C 0,0 C -1,1 C 96 % 15 lf 1009,2 hPa 0,0 l/m 0 min 0 min 36 W/m 27,0 km/h (4 Bft) 97,83 %
15.02.2018 09:02 0,5 C 0,6 C -1,1 C 96 % 15 lf 1009,1 hPa 0,0 l/m 0 min 2 min 40 W/m 27,0 km/h (4 Bft) 97,87 %
15.02.2018 09:04 0,5 C 0,6 C -1,1 C 96 % 15 lf 1009,2 hPa 0,0 l/m 0 min 2 min 40 W/m 42,8 km/h (6 Bft) 95,74 %
15.02.2018 09:06 0,5 C 0,6 C -1,1 C 96 % 15 lf 1009,2 hPa 0,0 l/m 0 min 2 min 38 W/m 36,0 km/h (5 Bft) 97,87 %
15.02.2018 09:08 0,5 C 0,6 C -1,1 C 96 % 15 lf 1009,2 hPa 0,0 l/m 0 min 2 min 37 W/m 27,0 km/h (4 Bft) 97,87 %
15.02.2018 09:10 0,5 C 0,6 C -1,1 C 96 % 15 lf 1009,2 hPa 0,0 l/m 0 min 2 min 38 W/m 29,3 km/h (5 Bft) 97,87 %
15.02.2018 09:12 0,5 C 0,6 C -1,1 C 96 % 15 lf 1009,3 hPa 0,0 l/m 0 min 2 min 44 W/m 33,8 km/h (5 Bft) 97,87 %
15.02.2018 09:14 0,5 C 0,6 C -1,1 C 96 % 15 lf 1009,2 hPa 0,0 l/m 0 min 2 min 47 W/m 33,8 km/h (5 Bft) 97,83 %
15.02.2018 09:16 0,6 C 0,6 C -1,1 C 96 % 15 lf 1009,2 hPa 0,0 l/m 0 min 2 min 43 W/m 31,5 km/h (5 Bft) 97,87 %
15.02.2018 09:18 0,6 C 0,6 C -1,1 C 96 % 15 lf 1009,3 hPa 0,0 l/m 0 min 2 min 39 W/m 31,5 km/h (5 Bft) 97,87 %
15.02.2018 09:20 0,6 C 0,6 C -1,1 C 96 % 15 lf 1009,3 hPa 0,0 l/m 0 min 2 min 38 W/m 38,3 km/h (5 Bft) 97,87 %
15.02.2018 09:22 0,6 C 0,6 C -1,1 C 96 % 15 lf 1009,4 hPa 0,0 l/m 0 min 2 min 37 W/m 29,3 km/h (5 Bft) 95,74 %
15.02.2018 09:24 0,6 C 0,6 C -1,1 C 96 % 15 lf 1009,3 hPa 0,0 l/m 0 min 2 min 37 W/m 29,3 km/h (5 Bft) 95,65 %
15.02.2018 09:26 0,7 C 0,6 C -1,1 C 96 % 15 lf 1009,3 hPa 0,0 l/m 0 min 2 min 41 W/m 29,3 km/h (5 Bft) 91,49 %
15.02.2018 09:28 0,6 C 0,6 C -0,6 C 96 % 15 lf 1009,3 hPa 0,0 l/m 0 min 2 min 48 W/m 33,8 km/h (5 Bft) 95,74 %
15.02.2018 09:30 0,7 C 0,6 C -0,6 C 96 % 15 lf 1009,2 hPa 0,0 l/m 0 min 2 min 57 W/m 29,3 km/h (5 Bft) 100,00 %
15.02.2018 09:32 0,7 C 0,6 C -0,6 C 96 % 15 lf 1009,2 hPa 0,0 l/m 0 min 2 min 63 W/m 22,5 km/h (4 Bft) 100,00 %
15.02.2018 09:34 0,7 C 0,6 C -0,6 C 96 % 15 lf 1009,3 hPa 0,0 l/m 0 min 2 min 65 W/m 33,8 km/h (5 Bft) 100,00 %
15.02.2018 09:36 0,7 C 0,6 C -0,6 C 96 % 15 lf 1009,3 hPa 0,0 l/m 0 min 2 min 67 W/m 29,3 km/h (5 Bft) 95,65 %
15.02.2018 09:38 0,7 C 0,6 C -0,6 C 96 % 15 lf 1009,3 hPa 0,0 l/m 0 min 2 min 66 W/m 31,5 km/h (5 Bft) 100,00 %
15.02.2018 09:40 0,7 C 0,6 C -0,6 C 96 % 15 lf 1009,3 hPa 0,0 l/m 0 min 2 min 65 W/m 27,0 km/h (4 Bft) 95,74 %
15.02.2018 09:42 0,7 C 0,6 C -0,6 C 96 % 15 lf 1009,3 hPa 0,0 l/m 0 min 2 min 68 W/m 38,3 km/h (5 Bft) 97,87 %
15.02.2018 09:44 0,7 C 0,6 C -0,6 C 96 % 15 lf 1009,3 hPa 0,0 l/m 0 min 2 min 65 W/m 38,3 km/h (5 Bft) 97,87 %
15.02.2018 09:46 0,7 C 0,6 C -0,6 C 96 % 15 lf 1009,4 hPa 0,0 l/m 0 min 2 min 61 W/m 27,0 km/h (4 Bft) 93,62 %
15.02.2018 09:48 0,7 C 0,6 C -0,6 C 96 % 15 lf 1009,3 hPa 0,0 l/m 0 min 2 min 55 W/m 31,5 km/h (5 Bft) 93,48 %
15.02.2018 09:50 0,7 C 0,6 C -0,6 C 96 % 15 lf 1009,3 hPa 0,0 l/m 0 min 2 min 53 W/m 24,8 km/h (4 Bft) 95,74 %
15.02.2018 09:52 0,7 C 0,6 C -0,6 C 96 % 15 lf 1009,3 hPa 0,0 l/m 0 min 2 min 51 W/m 36,0 km/h (5 Bft) 97,87 %
15.02.2018 09:54 0,7 C 0,6 C -0,6 C 96 % 15 lf 1009,3 hPa 0,0 l/m 0 min 2 min 49 W/m 36,0 km/h (5 Bft) 95,74 %
15.02.2018 09:56 0,7 C 0,6 C -0,6 C 96 % 15 lf 1009,4 hPa 0,0 l/m 0 min 2 min 48 W/m 33,8 km/h (5 Bft) 93,62 %
15.02.2018 09:58 0,7 C 0,6 C -0,6 C 96 % 15 lf 1009,3 hPa 0,0 l/m 0 min 2 min 47 W/m 31,5 km/h (5 Bft) 95,65 %
15.02.2018 10:00 0,7 C 0,6 C -0,6 C 96 % 15 lf 1009,4 hPa 0,0 l/m 0 min 2 min 47 W/m 36,0 km/h (5 Bft) 95,74 %
15.02.2018 10:02 0,7 C 0,6 C -0,6 C 96 % 15 lf 1009,3 hPa 0,0 l/m 0 min 2 min 47 W/m 31,5 km/h (5 Bft) 91,49 %
15.02.2018 10:04 0,7 C 0,6 C -0,6 C 96 % 15 lf 1009,4 hPa 0,0 l/m 0 min 0 min 45 W/m 27,0 km/h (4 Bft) 93,62 %
15.02.2018 10:06 0,7 C 0,6 C -0,6 C 96 % 15 lf 1009,5 hPa 0,2 l/m 0 min 2 min 44 W/m 38,3 km/h (5 Bft) 93,62 %
15.02.2018 10:08 0,7 C 0,6 C -0,6 C 96 % 15 lf 1009,5 hPa 0,0 l/m 0 min 2 min 44 W/m 36,0 km/h (5 Bft) 95,74 %
15.02.2018 10:10 0,7 C 0,6 C -0,6 C 96 % 15 lf 1009,5 hPa 0,0 l/m 0 min 0 min 46 W/m 36,0 km/h (5 Bft) 95,65 %
15.02.2018 10:12 0,7 C 0,6 C -0,6 C 96 % 15 lf 1009,5 hPa 0,0 l/m 0 min 2 min 50 W/m 27,0 km/h (4 Bft) 95,74 %
15.02.2018 10:14 0,7 C 0,6 C -0,6 C 96 % 15 lf 1009,5 hPa 0,0 l/m 0 min 2 min 50 W/m 29,3 km/h (5 Bft) 95,74 %
15.02.2018 10:16 0,7 C 0,6 C -0,6 C 96 % 15 lf 1009,4 hPa 0,2 l/m 0 min 2 min 56 W/m 27,0 km/h (4 Bft) 93,62 %
15.02.2018 10:18 0,7 C 0,6 C -0,6 C 96 % 15 lf 1009,3 hPa 0,0 l/m 0 min 2 min 61 W/m 24,8 km/h (4 Bft) 95,74 %
15.02.2018 10:20 0,7 C 0,6 C 0,0 C 96 % 15 lf 1009,3 hPa 0,0 l/m 0 min 2 min 75 W/m 20,3 km/h (4 Bft) 93,62 %
15.02.2018 10:22 0,8 C 0,6 C 0,0 C 96 % 15 lf 1009,4 hPa 0,2 l/m 0 min 2 min 85 W/m 31,5 km/h (5 Bft) 95,65 %
15.02.2018 10:24 0,8 C 0,6 C 0,0 C 96 % 15 lf 1009,4 hPa 0,0 l/m 0 min 2 min 90 W/m 22,5 km/h (4 Bft) 95,74 %
15.02.2018 10:26 0,8 C 0,6 C 0,0 C 96 % 15 lf 1009,4 hPa 0,0 l/m 0 min 2 min 84 W/m 24,8 km/h (4 Bft) 95,74 %
15.02.2018 10:28 0,8 C 0,6 C 0,0 C 96 % 15 lf 1009,4 hPa 0,0 l/m 0 min 2 min 76 W/m 36,0 km/h (5 Bft) 95,74 %
15.02.2018 10:30 0,8 C 0,6 C 0,0 C 96 % 15 lf 1009,4 hPa 0,0 l/m 0 min 2 min 78 W/m 22,5 km/h (4 Bft) 93,62 %
15.02.2018 10:32 0,8 C 0,6 C 0,0 C 96 % 15 lf 1009,4 hPa 0,0 l/m 0 min 2 min 81 W/m 31,5 km/h (5 Bft) 93,62 %
15.02.2018 10:34 0,8 C 0,6 C 0,0 C 96 % 15 lf 1009,5 hPa 0,2 l/m 0 min 0 min 77 W/m 22,5 km/h (4 Bft) 97,83 %
15.02.2018 10:36 0,8 C 0,6 C 0,0 C 96 % 15 lf 1009,5 hPa 0,0 l/m 0 min 2 min 68 W/m 29,3 km/h (5 Bft) 95,74 %
15.02.2018 10:38 0,8 C 0,6 C 0,0 C 96 % 15 lf 1009,5 hPa 0,0 l/m 0 min 2 min 57 W/m 22,5 km/h (4 Bft) 95,74 %
15.02.2018 10:40 0,8 C 0,6 C -0,6 C 96 % 15 lf 1009,5 hPa 0,2 l/m 0 min 2 min 52 W/m 31,5 km/h (5 Bft) 95,74 %
15.02.2018 10:42 0,8 C 0,6 C -0,6 C 96 % 15 lf 1009,7 hPa 0,0 l/m 0 min 2 min 50 W/m 24,8 km/h (4 Bft) 97,87 %
15.02.2018 10:44 0,8 C 0,6 C -0,6 C 96 % 15 lf 1009,7 hPa 0,0 l/m 0 min 2 min 55 W/m 27,0 km/h (4 Bft) 97,87 %
15.02.2018 10:46 0,8 C 0,6 C 0,0 C 96 % 15 lf 1009,7 hPa 0,0 l/m 0 min 2 min 60 W/m 27,0 km/h (4 Bft) 97,83 %
15.02.2018 10:48 0,8 C 0,6 C 0,0 C 96 % 15 lf 1009,7 hPa 0,0 l/m 0 min 2 min 64 W/m 31,5 km/h (5 Bft) 95,74 %
15.02.2018 10:50 0,8 C 0,6 C 0,0 C 96 % 15 lf 1009,8 hPa 0,0 l/m 0 min 2 min 69 W/m 24,8 km/h (4 Bft) 95,74 %
15.02.2018 10:52 0,9 C 0,6 C 0,0 C 96 % 15 lf 1009,8 hPa 0,2 l/m 0 min 2 min 66 W/m 33,8 km/h (5 Bft) 98,18 %
15.02.2018 10:54 0,9 C 0,6 C 0,0 C 96 % 15 lf 1009,8 hPa 0,0 l/m 0 min 2 min 62 W/m 24,8 km/h (4 Bft) 94,29 %
15.02.2018 10:56 0,9 C 0,6 C 0,0 C 96 % 15 lf 1009,8 hPa 0,0 l/m 0 min 2 min 57 W/m 29,3 km/h (5 Bft) 97,87 %
15.02.2018 10:58 0,9 C 0,6 C 0,0 C 96 % 15 lf 1009,8 hPa 0,0 l/m 0 min 2 min 52 W/m 29,3 km/h (5 Bft) 95,74 %
15.02.2018 11:00 0,9 C 0,6 C 0,0 C 96 % 15 lf 1009,9 hPa 0,2 l/m 0 min 2 min 43 W/m 27,0 km/h (4 Bft) 97,83 %
15.02.2018 11:02 0,9 C 0,6 C -0,6 C 96 % 15 lf 1009,9 hPa 0,0 l/m 0 min 2 min 40 W/m 27,0 km/h (4 Bft) 97,87 %
15.02.2018 11:04 0,9 C 0,6 C -0,6 C 96 % 15 lf 1010,0 hPa 0,0 l/m 0 min 2 min 41 W/m 24,8 km/h (4 Bft) 97,87 %
15.02.2018 11:06 0,9 C 0,6 C 0,0 C 96 % 15 lf 1009,9 hPa 0,0 l/m 0 min 2 min 37 W/m 22,5 km/h (4 Bft) 95,74 %
15.02.2018 11:08 0,9 C 0,6 C 0,0 C 96 % 15 lf 1009,9 hPa 0,0 l/m 0 min 2 min 35 W/m 20,3 km/h (4 Bft) 93,62 %
15.02.2018 11:10 0,9 C 0,6 C 0,0 C 96 % 15 lf 1009,9 hPa 0,2 l/m 0 min 2 min 34 W/m 29,3 km/h (5 Bft) 97,83 %
15.02.2018 11:12 0,9 C 0,6 C -0,6 C 96 % 15 lf 1009,8 hPa 0,0 l/m 0 min 2 min 33 W/m 29,3 km/h (5 Bft) 97,87 %
15.02.2018 11:14 0,9 C 0,6 C 0,0 C 96 % 15 lf 1009,8 hPa 0,0 l/m 0 min 2 min 33 W/m 22,5 km/h (4 Bft) 97,87 %
15.02.2018 11:16 0,9 C 0,6 C 0,0 C 96 % 15 lf 1009,9 hPa 0,0 l/m 0 min 2 min 33 W/m 20,3 km/h (4 Bft) 100,00 %
15.02.2018 11:18 0,9 C 0,6 C -0,6 C 96 % 15 lf 1009,9 hPa 0,0 l/m 0 min 2 min 32 W/m 36,0 km/h (5 Bft) 97,87 %
15.02.2018 11:20 0,9 C 0,6 C 0,0 C 96 % 15 lf 1009,8 hPa 0,0 l/m 0 min 2 min 32 W/m 24,8 km/h (4 Bft) 96,55 %
15.02.2018 11:22 0,9 C 0,6 C 0,0 C 96 % 15 lf 1009,8 hPa 0,2 l/m 0 min 2 min 33 W/m 15,8 km/h (3 Bft) 100,00 %
15.02.2018 11:24 0,9 C 0,6 C 0,0 C 96 % 15 lf 1009,8 hPa 0,0 l/m 0 min 2 min 37 W/m 18,0 km/h (3 Bft) 100,00 %
15.02.2018 11:26 0,9 C 0,6 C 0,0 C 96 % 15 lf 1009,9 hPa 0,0 l/m 0 min 0 min 40 W/m 24,8 km/h (4 Bft) 97,87 %
15.02.2018 11:28 0,9 C 0,6 C 0,0 C 96 % 15 lf 1009,9 hPa 0,0 l/m 0 min 2 min 46 W/m 27,0 km/h (4 Bft) 100,00 %
15.02.2018 11:30 0,9 C 1,1 C 0,0 C 96 % 15 lf 1010,0 hPa 0,0 l/m 0 min 2 min 49 W/m 20,3 km/h (4 Bft) 100,00 %
15.02.2018 11:32 0,9 C 1,1 C 0,0 C 96 % 15 lf 1010,0 hPa 0,0 l/m 0 min 0 min 52 W/m 27,0 km/h (4 Bft) 97,87 %
15.02.2018 11:34 1,0 C 1,1 C 0,0 C 96 % 15 lf 1010,0 hPa 0,0 l/m 0 min 0 min 52 W/m 24,8 km/h (4 Bft) 100,00 %
15.02.2018 11:36 1,0 C 1,1 C 0,0 C 96 % 15 lf 1010,0 hPa 0,0 l/m 0 min 0 min 49 W/m 22,5 km/h (4 Bft) 97,87 %
15.02.2018 11:38 1,0 C 1,1 C 0,0 C 96 % 15 lf 1010,0 hPa 0,2 l/m 0 min 2 min 50 W/m 27,0 km/h (4 Bft) 100,00 %
15.02.2018 11:40 1,0 C 1,1 C 0,0 C 97 % 15 lf 1010,0 hPa 0,0 l/m 0 min 2 min 51 W/m 22,5 km/h (4 Bft) 100,00 %
15.02.2018 11:42 1,0 C 1,1 C 0,0 C 97 % 15 lf 1010,1 hPa 0,0 l/m 0 min 2 min 54 W/m 20,3 km/h (4 Bft) 100,00 %
15.02.2018 11:44 1,1 C 1,1 C 0,0 C 97 % 15 lf 1010,1 hPa 0,0 l/m 0 min 0 min 52 W/m 18,0 km/h (3 Bft) 100,00 %
15.02.2018 11:46 1,1 C 1,1 C 0,0 C 97 % 15 lf 1010,1 hPa 0,0 l/m 0 min 0 min 58 W/m 22,5 km/h (4 Bft) 97,83 %
15.02.2018 11:48 1,1 C 1,1 C 0,0 C 97 % 15 lf 1010,1 hPa 0,0 l/m 0 min 0 min 66 W/m 18,0 km/h (3 Bft) 95,74 %
15.02.2018 11:50 1,1 C 1,1 C 0,0 C 97 % 15 lf 1010,1 hPa 0,0 l/m 0 min 2 min 68 W/m 22,5 km/h (4 Bft) 98,31 %
15.02.2018 11:52 1,1 C 1,1 C 0,0 C 97 % 15 lf 1010,1 hPa 0,0 l/m 0 min 2 min 75 W/m 29,3 km/h (5 Bft) 94,29 %
15.02.2018 11:54 1,1 C 1,1 C 0,0 C 97 % 15 lf 1010,0 hPa 0,2 l/m 0 min 0 min 79 W/m 24,8 km/h (4 Bft) 97,87 %
15.02.2018 11:56 1,2 C 1,1 C 0,0 C 97 % 15 lf 1010,1 hPa 0,0 l/m 0 min 0 min 62 W/m 24,8 km/h (4 Bft) 97,83 %
15.02.2018 11:58 1,2 C 1,1 C 0,0 C 97 % 15 lf 1010,1 hPa 0,0 l/m 0 min 2 min 64 W/m 31,5 km/h (5 Bft) 93,62 %
15.02.2018 12:00 1,2 C 1,1 C 0,0 C 97 % 15 lf 1010,1 hPa 0,0 l/m 0 min 2 min 61 W/m 29,3 km/h (5 Bft) 97,87 %
15.02.2018 12:02 1,2 C 1,1 C 0,0 C 97 % 15 lf 1010,1 hPa 0,0 l/m 0 min 2 min 63 W/m 24,8 km/h (4 Bft) 95,74 %
15.02.2018 12:04 1,2 C 1,1 C 0,0 C 97 % 15 lf 1010,1 hPa 0,0 l/m 0 min 2 min 61 W/m 22,5 km/h (4 Bft) 97,87 %
15.02.2018 12:06 1,2 C 1,1 C 0,0 C 97 % 15 lf 1010,1 hPa 0,0 l/m 0 min 2 min 56 W/m 24,8 km/h (4 Bft) 95,83 %
15.02.2018 12:08 1,2 C 1,1 C 0,0 C 97 % 15 lf 1010,2 hPa 0,0 l/m 0 min 2 min 56 W/m 24,8 km/h (4 Bft) 97,83 %
15.02.2018 12:10 1,2 C 1,1 C 0,0 C 97 % 15 lf 1010,2 hPa 0,0 l/m 0 min 2 min 60 W/m 18,0 km/h (3 Bft) 97,87 %
15.02.2018 12:12 1,2 C 1,1 C 0,0 C 97 % 15 lf 1010,2 hPa 0,0 l/m 0 min 0 min 77 W/m 22,5 km/h (4 Bft) 97,87 %
15.02.2018 12:14 1,2 C 1,1 C 0,6 C 97 % 15 lf 1010,2 hPa 0,2 l/m 0 min 2 min 85 W/m 29,3 km/h (5 Bft) 97,87 %
15.02.2018 12:16 1,2 C 1,1 C 0,6 C 97 % 15 lf 1010,2 hPa 0,0 l/m 0 min 0 min 87 W/m 22,5 km/h (4 Bft) 97,87 %
15.02.2018 12:18 1,3 C 1,1 C 0,6 C 97 % 15 lf 1010,2 hPa 0,0 l/m 0 min 2 min 84 W/m 29,3 km/h (5 Bft) 100,00 %
15.02.2018 12:20 1,3 C 1,1 C 0,6 C 97 % 15 lf 1010,2 hPa 0,0 l/m 0 min 2 min 86 W/m 22,5 km/h (4 Bft) 98,28 %
15.02.2018 12:22 1,3 C 1,1 C 0,6 C 97 % 15 lf 1010,2 hPa 0,0 l/m 0 min 2 min 86 W/m 24,8 km/h (4 Bft) 100,00 %
15.02.2018 12:24 1,3 C 1,7 C 0,6 C 97 % 15 lf 1010,2 hPa 0,0 l/m 0 min 2 min 79 W/m 18,0 km/h (3 Bft) 97,87 %
15.02.2018 12:26 1,3 C 1,7 C 0,6 C 97 % 15 lf 1010,2 hPa 0,0 l/m 0 min 2 min 76 W/m 20,3 km/h (4 Bft) 97,87 %
15.02.2018 12:28 1,3 C 1,7 C 0,6 C 97 % 15 lf 1010,2 hPa 0,0 l/m 0 min 2 min 78 W/m 24,8 km/h (4 Bft) 91,49 %
15.02.2018 12:30 1,4 C 1,1 C 0,6 C 97 % 15 lf 1010,2 hPa 0,0 l/m 0 min 2 min 78 W/m 29,3 km/h (5 Bft) 97,87 %
15.02.2018 12:32 1,4 C 1,1 C 0,6 C 97 % 15 lf 1010,2 hPa 0,0 l/m 0 min 2 min 91 W/m 24,8 km/h (4 Bft) 91,30 %
15.02.2018 12:34 1,4 C 1,7 C 0,6 C 97 % 15 lf 1010,2 hPa 0,2 l/m 0 min 2 min 99 W/m 24,8 km/h (4 Bft) 95,74 %
15.02.2018 12:36 1,4 C 1,7 C 0,6 C 97 % 15 lf 1010,2 hPa 0,0 l/m 0 min 2 min 95 W/m 20,3 km/h (4 Bft) 95,74 %
15.02.2018 12:38 1,4 C 1,7 C 0,6 C 97 % 15 lf 1010,2 hPa 0,0 l/m 0 min 0 min 92 W/m 15,8 km/h (3 Bft) 93,62 %
15.02.2018 12:40 1,4 C 1,7 C 0,6 C 97 % 15 lf 1010,2 hPa 0,0 l/m 0 min 0 min 82 W/m 18,0 km/h (3 Bft) 97,87 %
15.02.2018 12:42 1,5 C 1,7 C 0,6 C 97 % 15 lf 1010,2 hPa 0,0 l/m 0 min 0 min 73 W/m 22,5 km/h (4 Bft) 95,74 %
15.02.2018 12:44 1,5 C 1,7 C 0,6 C 97 % 15 lf 1010,3 hPa 0,0 l/m 0 min 0 min 61 W/m 27,0 km/h (4 Bft) 95,65 %
15.02.2018 12:46 1,5 C 1,7 C 0,6 C 97 % 15 lf 1010,2 hPa 0,0 l/m 0 min 0 min 51 W/m 24,8 km/h (4 Bft) 93,62 %
15.02.2018 12:48 1,6 C 1,7 C 0,6 C 97 % 15 lf 1010,3 hPa 0,0 l/m 0 min 0 min 45 W/m 18,0 km/h (3 Bft) 95,74 %
15.02.2018 12:50 1,6 C 1,7 C 0,6 C 97 % 15 lf 1010,3 hPa 0,0 l/m 0 min 0 min 45 W/m 22,5 km/h (4 Bft) 96,61 %
15.02.2018 12:52 1,6 C 1,7 C 0,6 C 97 % 15 lf 1010,3 hPa 0,2 l/m 0 min 0 min 47 W/m 18,0 km/h (3 Bft) 88,57 %
15.02.2018 12:54 1,6 C 1,7 C 0,6 C 97 % 15 lf 1010,4 hPa 0,0 l/m 0 min 0 min 44 W/m 22,5 km/h (4 Bft) 95,65 %
15.02.2018 12:56 1,6 C 1,7 C 0,6 C 97 % 15 lf 1010,3 hPa 0,0 l/m 0 min 0 min 49 W/m 18,0 km/h (3 Bft) 95,74 %
15.02.2018 12:58 1,6 C 1,7 C 0,6 C 97 % 15 lf 1010,4 hPa 0,0 l/m 0 min 0 min 52 W/m 18,0 km/h (3 Bft) 95,74 %
15.02.2018 13:00 1,6 C 1,7 C 0,6 C 97 % 15 lf 1010,5 hPa 0,0 l/m 0 min 0 min 53 W/m 22,5 km/h (4 Bft) 93,62 %
15.02.2018 13:02 1,6 C 1,7 C 0,6 C 97 % 15 lf 1010,4 hPa 0,0 l/m 0 min 0 min 55 W/m 20,3 km/h (4 Bft) 95,74 %
15.02.2018 13:04 1,6 C 1,7 C 0,6 C 97 % 15 lf 1010,4 hPa 0,0 l/m 0 min 0 min 52 W/m 18,0 km/h (3 Bft) 93,62 %
15.02.2018 13:08 1,7 C 1,7 C 0,6 C 97 % 15 lf 1010,3 hPa 0,0 l/m 0 min 0 min 51 W/m 20,3 km/h (4 Bft) 94,62 %
15.02.2018 13:10 1,7 C 1,7 C 0,6 C 97 % 15 lf 1010,4 hPa 0,0 l/m 0 min 0 min 42 W/m 15,8 km/h (3 Bft) 96,00 %
15.02.2018 13:12 1,7 C 1,7 C 0,6 C 97 % 15 lf 1010,4 hPa 0,0 l/m 0 min 0 min 40 W/m 18,0 km/h (3 Bft) 93,62 %
15.02.2018 13:14 1,7 C 1,7 C 0,6 C 97 % 15 lf 1010,4 hPa 0,0 l/m 0 min 0 min 42 W/m 27,0 km/h (4 Bft) 91,49 %
15.02.2018 13:16 1,7 C 1,7 C 0,6 C 97 % 15 lf 1010,3 hPa 0,2 l/m 0 min 0 min 45 W/m 20,3 km/h (4 Bft) 93,62 %
15.02.2018 13:18 1,7 C 1,7 C 0,6 C 97 % 15 lf 1010,4 hPa 0,0 l/m 0 min 0 min 44 W/m 18,0 km/h (3 Bft) 95,65 %
15.02.2018 13:20 1,7 C 1,7 C 0,6 C 97 % 15 lf 1010,5 hPa 0,0 l/m 0 min 0 min 40 W/m 22,5 km/h (4 Bft) 95,74 %
15.02.2018 13:22 1,7 C 1,7 C 0,6 C 97 % 15 lf 1010,4 hPa 0,0 l/m 0 min 0 min 36 W/m 15,8 km/h (3 Bft) 95,74 %
15.02.2018 13:24 1,7 C 1,7 C 0,6 C 97 % 15 lf 1010,4 hPa 0,0 l/m 0 min 0 min 36 W/m 22,5 km/h (4 Bft) 91,49 %
15.02.2018 13:26 1,7 C 1,7 C 0,6 C 97 % 15 lf 1010,4 hPa 0,0 l/m 0 min 0 min 34 W/m 20,3 km/h (4 Bft) 95,74 %
15.02.2018 13:28 1,7 C 1,7 C 0,6 C 97 % 15 lf 1010,3 hPa 0,0 l/m 0 min 0 min 35 W/m 29,3 km/h (5 Bft) 93,62 %
15.02.2018 13:30 1,8 C 1,7 C 0,6 C 97 % 15 lf 1010,3 hPa 0,0 l/m 0 min 0 min 32 W/m 29,3 km/h (5 Bft) 95,65 %
15.02.2018 13:32 1,8 C 1,7 C 0,6 C 97 % 15 lf 1010,3 hPa 0,0 l/m 0 min 0 min 33 W/m 20,3 km/h (4 Bft) 95,74 %
15.02.2018 13:34 1,8 C 1,7 C 1,1 C 97 % 15 lf 1010,4 hPa 0,0 l/m 0 min 0 min 36 W/m 22,5 km/h (4 Bft) 97,87 %
15.02.2018 13:36 1,8 C 1,7 C 1,1 C 97 % 15 lf 1010,5 hPa 0,0 l/m 0 min 0 min 35 W/m 18,0 km/h (3 Bft) 97,87 %
15.02.2018 13:38 1,8 C 1,7 C 1,1 C 97 % 15 lf 1010,5 hPa 0,0 l/m 0 min 0 min 36 W/m 20,3 km/h (4 Bft) 95,74 %
15.02.2018 13:40 1,8 C 1,7 C 1,1 C 97 % 15 lf 1010,5 hPa 0,0 l/m 0 min 0 min 36 W/m 20,3 km/h (4 Bft) 93,62 %
15.02.2018 13:42 1,9 C 1,7 C 1,1 C 97 % 15 lf 1010,5 hPa 0,0 l/m 0 min 0 min 35 W/m 18,0 km/h (3 Bft) 95,65 %
15.02.2018 13:44 1,9 C 1,7 C 1,1 C 97 % 15 lf 1010,6 hPa 0,0 l/m 0 min 2 min 40 W/m 20,3 km/h (4 Bft) 95,74 %
15.02.2018 13:46 1,9 C 2,2 C 1,1 C 97 % 15 lf 1010,5 hPa 0,0 l/m 0 min 2 min 49 W/m 13,5 km/h (3 Bft) 91,49 %
15.02.2018 13:48 1,9 C 2,2 C 1,1 C 97 % 15 lf 1010,5 hPa 0,2 l/m 0 min 2 min 59 W/m 15,8 km/h (3 Bft) 95,74 %
15.02.2018 13:50 1,9 C 2,2 C 1,1 C 97 % 15 lf 1010,5 hPa 0,0 l/m 0 min 2 min 54 W/m 20,3 km/h (4 Bft) 97,87 %
15.02.2018 13:52 1,9 C 2,2 C 1,1 C 97 % 15 lf 1010,6 hPa 0,0 l/m 0 min 2 min 57 W/m 20,3 km/h (4 Bft) 95,65 %
15.02.2018 13:54 2,0 C 2,2 C 1,1 C 98 % 15 lf 1010,6 hPa 0,2 l/m 0 min 2 min 57 W/m 18,0 km/h (3 Bft) 93,62 %
15.02.2018 13:56 2,0 C 2,2 C 1,1 C 98 % 15 lf 1010,6 hPa 0,0 l/m 0 min 0 min 51 W/m 18,0 km/h (3 Bft) 95,74 %
15.02.2018 13:58 2,1 C 2,2 C 1,1 C 98 % 15 lf 1010,6 hPa 0,0 l/m 0 min 0 min 42 W/m 20,3 km/h (4 Bft) 91,49 %
15.02.2018 14:00 2,1 C 2,2 C 1,1 C 98 % 15 lf 1010,6 hPa 0,0 l/m 0 min 2 min 37 W/m 18,0 km/h (3 Bft) 91,49 %
15.02.2018 14:02 2,1 C 2,2 C 1,1 C 98 % 15 lf 1010,6 hPa 0,0 l/m 0 min 2 min 39 W/m 18,0 km/h (3 Bft) 97,87 %
15.02.2018 14:04 2,1 C 2,2 C 1,1 C 98 % 15 lf 1010,5 hPa 0,0 l/m 0 min 0 min 40 W/m 22,5 km/h (4 Bft) 95,65 %
15.02.2018 14:06 2,1 C 2,2 C 1,1 C 98 % 15 lf 1010,5 hPa 0,2 l/m 0 min 0 min 50 W/m 22,5 km/h (4 Bft) 97,87 %
15.02.2018 14:08 2,1 C 2,2 C 1,1 C 97 % 15 lf 1010,5 hPa 0,0 l/m 0 min 0 min 61 W/m 18,0 km/h (3 Bft) 97,87 %
15.02.2018 14:10 2,1 C 2,2 C 1,1 C 97 % 15 lf 1010,5 hPa 0,0 l/m 0 min 0 min 59 W/m 15,8 km/h (3 Bft) 89,36 %
15.02.2018 14:12 2,1 C 2,2 C 1,7 C 97 % 15 lf 1010,6 hPa 0,0 l/m 0 min 0 min 52 W/m 15,8 km/h (3 Bft) 97,87 %
15.02.2018 14:14 2,2 C 2,2 C 1,7 C 97 % 15 lf 1010,6 hPa 0,0 l/m 0 min 0 min 47 W/m 13,5 km/h (3 Bft) 100,00 %
15.02.2018 14:16 2,2 C 2,2 C 1,7 C 97 % 15 lf 1010,6 hPa 0,0 l/m 0 min 0 min 44 W/m 18,0 km/h (3 Bft) 100,00 %
15.02.2018 14:18 2,2 C 2,2 C 1,1 C 97 % 15 lf 1010,7 hPa 0,0 l/m 0 min 0 min 36 W/m 18,0 km/h (3 Bft) 100,00 %
15.02.2018 14:20 2,2 C 2,2 C 1,1 C 97 % 15 lf 1010,7 hPa 0,0 l/m 0 min 0 min 33 W/m 18,0 km/h (3 Bft) 100,00 %
15.02.2018 14:22 2,2 C 2,2 C 1,1 C 97 % 15 lf 1010,6 hPa 0,2 l/m 0 min 0 min 37 W/m 13,5 km/h (3 Bft) 100,00 %
15.02.2018 14:24 2,2 C 2,2 C 1,7 C 97 % 15 lf 1010,6 hPa 0,0 l/m 0 min 0 min 41 W/m 20,3 km/h (4 Bft) 100,00 %
15.02.2018 14:26 2,2 C 2,2 C 1,7 C 97 % 15 lf 1010,6 hPa 0,0 l/m 0 min 0 min 46 W/m 15,8 km/h (3 Bft) 100,00 %
15.02.2018 14:28 2,2 C 2,2 C 1,7 C 97 % 15 lf 1010,6 hPa 0,0 l/m 0 min 0 min 41 W/m 18,0 km/h (3 Bft) 100,00 %
15.02.2018 14:30 2,2 C 2,2 C 1,7 C 97 % 15 lf 1010,6 hPa 0,0 l/m 0 min 0 min 39 W/m 18,0 km/h (3 Bft) 100,00 %
15.02.2018 14:32 2,3 C 2,2 C 1,7 C 97 % 15 lf 1010,6 hPa 0,0 l/m 0 min 0 min 41 W/m 20,3 km/h (4 Bft) 100,00 %
15.02.2018 14:34 2,3 C 2,2 C 1,7 C 97 % 15 lf 1010,7 hPa 0,0 l/m 0 min 0 min 49 W/m 18,0 km/h (3 Bft) 100,00 %
15.02.2018 14:36 2,3 C 2,2 C 1,7 C 98 % 15 lf 1010,7 hPa 0,0 l/m 0 min 0 min 48 W/m 18,0 km/h (3 Bft) 100,00 %
15.02.2018 14:38 2,3 C 2,2 C 1,7 C 98 % 15 lf 1010,8 hPa 0,0 l/m 0 min 0 min 46 W/m 13,5 km/h (3 Bft) 97,87 %
15.02.2018 14:40 2,3 C 2,2 C 1,7 C 98 % 15 lf 1010,8 hPa 0,0 l/m 0 min 0 min 37 W/m 18,0 km/h (3 Bft) 100,00 %
15.02.2018 14:42 2,3 C 2,2 C 1,7 C 97 % 15 lf 1010,8 hPa 0,0 l/m 0 min 0 min 39 W/m 18,0 km/h (3 Bft) 100,00 %
15.02.2018 14:44 2,4 C 2,2 C 1,7 C 97 % 15 lf 1010,8 hPa 0,0 l/m 0 min 0 min 56 W/m 13,5 km/h (3 Bft) 100,00 %
15.02.2018 14:46 2,4 C 2,2 C 1,7 C 98 % 15 lf 1010,9 hPa 0,0 l/m 0 min 0 min 52 W/m 15,8 km/h (3 Bft) 100,00 %
15.02.2018 14:48 2,4 C 2,2 C 1,7 C 98 % 15 lf 1010,9 hPa 0,0 l/m 0 min 0 min 41 W/m 18,0 km/h (3 Bft) 97,87 %
15.02.2018 14:50 2,4 C 2,2 C 1,7 C 98 % 15 lf 1011,0 hPa 0,0 l/m 0 min 0 min 36 W/m 15,8 km/h (3 Bft) 93,48 %
15.02.2018 14:52 2,4 C 2,8 C 1,7 C 98 % 15 lf 1011,0 hPa 0,2 l/m 0 min 0 min 46 W/m 15,8 km/h (3 Bft) 100,00 %
15.02.2018 14:54 2,5 C 2,8 C 1,7 C 98 % 15 lf 1010,9 hPa 0,0 l/m 0 min 0 min 69 W/m 22,5 km/h (4 Bft) 100,00 %
15.02.2018 14:56 2,5 C 2,8 C 1,7 C 98 % 15 lf 1010,9 hPa 0,0 l/m 0 min 0 min 65 W/m 13,5 km/h (3 Bft) 100,00 %
15.02.2018 14:58 2,5 C 2,8 C 2,2 C 98 % 15 lf 1011,0 hPa 0,0 l/m 0 min 0 min 61 W/m 13,5 km/h (3 Bft) 100,00 %
15.02.2018 15:00 2,6 C 2,8 C 2,2 C 98 % 15 lf 1011,0 hPa 0,0 l/m 0 min 0 min 60 W/m 18,0 km/h (3 Bft) 100,00 %
15.02.2018 15:02 2,6 C 2,8 C 2,2 C 98 % 15 lf 1011,0 hPa 0,0 l/m 0 min 0 min 49 W/m 13,5 km/h (3 Bft) 100,00 %
15.02.2018 15:04 2,6 C 2,8 C 2,2 C 98 % 15 lf 1011,1 hPa 0,0 l/m 0 min 0 min 47 W/m 18,0 km/h (3 Bft) 97,87 %
15.02.2018 15:06 2,6 C 2,8 C 2,2 C 98 % 15 lf 1011,0 hPa 0,0 l/m 0 min 0 min 66 W/m 13,5 km/h (3 Bft) 97,87 %
15.02.2018 15:08 2,7 C 2,8 C 2,2 C 98 % 15 lf 1011,0 hPa 0,0 l/m 0 min 0 min 74 W/m 20,3 km/h (4 Bft) 97,87 %
15.02.2018 15:10 2,7 C 2,8 C 2,2 C 98 % 15 lf 1011,0 hPa 0,0 l/m 0 min 0 min 71 W/m 15,8 km/h (3 Bft) 100,00 %
15.02.2018 15:12 2,7 C 2,8 C 2,2 C 98 % 15 lf 1011,0 hPa 0,0 l/m 0 min 0 min 70 W/m 13,5 km/h (3 Bft) 100,00 %
15.02.2018 15:14 2,7 C 2,8 C 2,2 C 98 % 15 lf 1011,0 hPa 0,0 l/m 0 min 0 min 55 W/m 13,5 km/h (3 Bft) 100,00 %
15.02.2018 15:16 2,7 C 2,8 C 2,2 C 98 % 15 lf 1011,1 hPa 0,0 l/m 0 min 0 min 47 W/m 18,0 km/h (3 Bft) 95,74 %
15.02.2018 15:18 2,8 C 2,8 C 2,2 C 98 % 15 lf 1011,1 hPa 0,0 l/m 0 min 0 min 46 W/m 13,5 km/h (3 Bft) 97,87 %
15.02.2018 15:20 2,8 C 2,8 C 2,2 C 98 % 15 lf 1011,1 hPa 0,0 l/m 0 min 0 min 42 W/m 13,5 km/h (3 Bft) 95,74 %
15.02.2018 15:22 2,8 C 2,8 C 2,2 C 98 % 15 lf 1011,1 hPa 0,0 l/m 0 min 0 min 46 W/m 11,3 km/h (2 Bft) 97,87 %
15.02.2018 15:24 2,8 C 2,8 C 2,2 C 98 % 15 lf 1011,2 hPa 0,0 l/m 0 min 0 min 42 W/m 13,5 km/h (3 Bft) 95,74 %
15.02.2018 15:26 2,8 C 2,8 C 2,2 C 98 % 15 lf 1011,2 hPa 0,0 l/m 0 min 0 min 31 W/m 13,5 km/h (3 Bft) 95,65 %
15.02.2018 15:28 2,8 C 2,8 C 2,2 C 98 % 15 lf 1011,3 hPa 0,0 l/m 0 min 0 min 30 W/m 13,5 km/h (3 Bft) 97,87 %
15.02.2018 15:30 2,9 C 2,8 C 2,2 C 98 % 15 lf 1011,3 hPa 0,0 l/m 0 min 0 min 34 W/m 15,8 km/h (3 Bft) 95,74 %
15.02.2018 15:32 2,9 C 2,8 C 2,2 C 98 % 15 lf 1011,3 hPa 0,0 l/m 0 min 0 min 35 W/m 15,8 km/h (3 Bft) 97,87 %
15.02.2018 15:34 2,9 C 2,8 C 2,2 C 98 % 15 lf 1011,3 hPa 0,0 l/m 0 min 0 min 37 W/m 11,3 km/h (2 Bft) 97,87 %
15.02.2018 15:36 2,9 C 2,8 C 2,2 C 98 % 15 lf 1011,3 hPa 0,0 l/m 0 min 0 min 29 W/m 15,8 km/h (3 Bft) 93,48 %
15.02.2018 15:38 2,9 C 2,8 C 2,2 C 98 % 15 lf 1011,4 hPa 0,0 l/m 0 min 0 min 32 W/m 13,5 km/h (3 Bft) 95,74 %
15.02.2018 15:40 2,9 C 2,8 C 2,2 C 98 % 15 lf 1011,4 hPa 0,2 l/m 0 min 0 min 29 W/m 13,5 km/h (3 Bft) 95,74 %
15.02.2018 15:42 2,9 C 2,8 C 2,2 C 98 % 15 lf 1011,5 hPa 0,0 l/m 0 min 0 min 31 W/m 11,3 km/h (2 Bft) 91,49 %
15.02.2018 15:44 3,0 C 2,8 C 2,2 C 98 % 15 lf 1011,5 hPa 0,0 l/m 0 min 0 min 33 W/m 13,5 km/h (3 Bft) 95,74 %
15.02.2018 15:46 3,0 C 2,8 C 2,2 C 98 % 15 lf 1011,5 hPa 0,0 l/m 0 min 0 min 30 W/m 13,5 km/h (3 Bft) 93,62 %
15.02.2018 15:48 3,0 C 3,3 C 2,2 C 98 % 15 lf 1011,5 hPa 0,0 l/m 0 min 0 min 32 W/m 11,3 km/h (2 Bft) 95,74 %
15.02.2018 15:50 3,0 C 3,3 C 2,2 C 98 % 15 lf 1011,4 hPa 0,0 l/m 0 min 0 min 35 W/m 18,0 km/h (3 Bft) 95,65 %
15.02.2018 15:52 3,1 C 3,3 C 2,2 C 98 % 15 lf 1011,4 hPa 0,0 l/m 0 min 0 min 29 W/m 11,3 km/h (2 Bft) 93,62 %
15.02.2018 15:54 3,1 C 3,3 C 2,2 C 98 % 15 lf 1011,5 hPa 0,0 l/m 0 min 0 min 26 W/m 9,0 km/h (2 Bft) 95,74 %
15.02.2018 15:56 3,1 C 3,3 C 2,2 C 98 % 15 lf 1011,5 hPa 0,0 l/m 0 min 0 min 31 W/m 13,5 km/h (3 Bft) 95,74 %
15.02.2018 15:58 3,1 C 3,3 C 2,2 C 98 % 15 lf 1011,5 hPa 0,0 l/m 0 min 0 min 29 W/m 13,5 km/h (3 Bft) 93,62 %
15.02.2018 16:00 3,1 C 3,3 C 2,2 C 98 % 15 lf 1011,6 hPa 0,0 l/m 0 min 0 min 32 W/m 13,5 km/h (3 Bft) 93,48 %
15.02.2018 16:02 3,2 C 3,3 C 2,2 C 98 % 15 lf 1011,6 hPa 0,0 l/m 0 min 0 min 30 W/m 13,5 km/h (3 Bft) 95,74 %
15.02.2018 16:04 3,2 C 3,3 C 2,2 C 98 % 15 lf 1011,6 hPa 0,0 l/m 0 min 0 min 27 W/m 15,8 km/h (3 Bft) 93,62 %
15.02.2018 16:06 3,2 C 3,3 C 2,2 C 98 % 15 lf 1011,6 hPa 0,0 l/m 0 min 0 min 26 W/m 15,8 km/h (3 Bft) 93,62 %
15.02.2018 16:08 3,2 C 3,3 C 2,2 C 98 % 15 lf 1011,6 hPa 0,0 l/m 0 min 0 min 27 W/m 13,5 km/h (3 Bft) 95,74 %
15.02.2018 16:10 3,2 C 3,3 C 2,2 C 98 % 15 lf 1011,6 hPa 0,0 l/m 0 min 0 min 23 W/m 13,5 km/h (3 Bft) 97,87 %
15.02.2018 16:12 3,3 C 3,3 C 2,2 C 98 % 15 lf 1011,6 hPa 0,0 l/m 0 min 0 min 23 W/m 13,5 km/h (3 Bft) 97,83 %
15.02.2018 16:14 3,3 C 3,3 C 2,2 C 98 % 15 lf 1011,6 hPa 0,0 l/m 0 min 0 min 25 W/m 11,3 km/h (2 Bft) 95,74 %
15.02.2018 16:16 3,3 C 3,3 C 2,2 C 98 % 15 lf 1011,7 hPa 0,0 l/m 0 min 0 min 24 W/m 9,0 km/h (2 Bft) 95,74 %
15.02.2018 16:18 3,3 C 3,3 C 2,2 C 98 % 15 lf 1011,7 hPa 0,0 l/m 0 min 0 min 20 W/m 9,0 km/h (2 Bft) 91,49 %
15.02.2018 16:20 3,3 C 3,3 C 2,2 C 98 % 15 lf 1011,8 hPa 0,0 l/m 0 min 0 min 19 W/m 9,0 km/h (2 Bft) 93,62 %
15.02.2018 16:22 3,4 C 3,3 C 2,2 C 98 % 15 lf 1011,8 hPa 0,0 l/m 0 min 0 min 21 W/m 11,3 km/h (2 Bft) 93,62 %
15.02.2018 16:24 3,4 C 3,3 C 2,2 C 98 % 15 lf 1011,9 hPa 0,0 l/m 0 min 0 min 17 W/m 11,3 km/h (2 Bft) 91,30 %
15.02.2018 16:26 3,4 C 3,3 C 2,2 C 98 % 15 lf 1011,9 hPa 0,0 l/m 0 min 0 min 19 W/m 11,3 km/h (2 Bft) 95,74 %
15.02.2018 16:28 3,4 C 3,3 C 2,8 C 98 % 15 lf 1011,9 hPa 0,0 l/m 0 min 0 min 30 W/m 9,0 km/h (2 Bft) 93,62 %
15.02.2018 16:30 3,4 C 3,3 C 2,8 C 98 % 15 lf 1011,9 hPa 0,0 l/m 0 min 0 min 35 W/m 9,0 km/h (2 Bft) 93,62 %
15.02.2018 16:32 3,4 C 3,3 C 2,8 C 98 % 15 lf 1011,9 hPa 0,0 l/m 0 min 0 min 37 W/m 13,5 km/h (3 Bft) 91,49 %
15.02.2018 16:34 3,4 C 3,3 C 2,8 C 98 % 15 lf 1011,9 hPa 0,0 l/m 0 min 0 min 45 W/m 11,3 km/h (2 Bft) 93,62 %
15.02.2018 16:36 3,5 C 3,3 C 2,8 C 98 % 15 lf 1011,9 hPa 0,0 l/m 0 min 0 min 54 W/m 15,8 km/h (3 Bft) 93,48 %
15.02.2018 16:38 3,5 C 3,9 C 2,8 C 98 % 15 lf 1012,0 hPa 0,0 l/m 0 min 0 min 62 W/m 11,3 km/h (2 Bft) 95,74 %
15.02.2018 16:40 3,5 C 3,9 C 2,8 C 98 % 15 lf 1011,9 hPa 0,0 l/m 0 min 0 min 61 W/m 9,0 km/h (2 Bft) 95,74 %
15.02.2018 16:42 3,6 C 3,9 C 2,8 C 98 % 15 lf 1012,0 hPa 0,0 l/m 0 min 0 min 50 W/m 13,5 km/h (3 Bft) 93,62 %
15.02.2018 16:44 3,6 C 3,9 C 2,8 C 98 % 15 lf 1012,0 hPa 0,0 l/m 0 min 0 min 41 W/m 11,3 km/h (2 Bft) 95,74 %
15.02.2018 16:46 3,6 C 3,9 C 2,8 C 98 % 15 lf 1012,0 hPa 0,0 l/m 0 min 0 min 42 W/m 13,5 km/h (3 Bft) 97,83 %
15.02.2018 16:48 3,6 C 3,9 C 2,8 C 98 % 15 lf 1012,0 hPa 0,0 l/m 0 min 0 min 49 W/m 11,3 km/h (2 Bft) 97,87 %
15.02.2018 16:50 3,6 C 3,9 C 2,8 C 98 % 15 lf 1012,1 hPa 0,0 l/m 0 min 0 min 45 W/m 13,5 km/h (3 Bft) 93,62 %
15.02.2018 16:52 3,7 C 3,9 C 2,8 C 98 % 15 lf 1012,1 hPa 0,0 l/m 0 min 0 min 44 W/m 9,0 km/h (2 Bft) 93,62 %
15.02.2018 16:54 3,7 C 3,9 C 2,8 C 98 % 15 lf 1012,1 hPa 0,0 l/m 0 min 0 min 40 W/m 11,3 km/h (2 Bft) 97,87 %
15.02.2018 16:56 3,7 C 3,9 C 2,8 C 98 % 15 lf 1012,1 hPa 0,0 l/m 0 min 0 min 44 W/m 13,5 km/h (3 Bft) 97,87 %
15.02.2018 16:58 3,7 C 3,9 C 2,8 C 98 % 15 lf 1012,1 hPa 0,0 l/m 0 min 0 min 44 W/m 9,0 km/h (2 Bft) 95,65 %
15.02.2018 17:00 3,7 C 3,9 C 2,8 C 98 % 15 lf 1012,1 hPa 0,0 l/m 0 min 0 min 47 W/m 11,3 km/h (2 Bft) 93,62 %
15.02.2018 17:02 3,7 C 3,9 C 2,8 C 98 % 15 lf 1012,1 hPa 0,0 l/m 0 min 0 min 49 W/m 9,0 km/h (2 Bft) 97,87 %
15.02.2018 17:04 3,7 C 3,9 C 2,8 C 98 % 15 lf 1012,1 hPa 0,0 l/m 2 min 0 min 53 W/m 9,0 km/h (2 Bft) 95,74 %
15.02.2018 17:06 3,7 C 3,9 C 2,8 C 98 % 15 lf 1012,1 hPa 0,0 l/m 2 min 0 min 51 W/m 9,0 km/h (2 Bft) 97,87 %
15.02.2018 17:08 3,8 C 3,9 C 2,8 C 98 % 15 lf 1012,1 hPa 0,0 l/m 2 min 0 min 46 W/m 11,3 km/h (2 Bft) 97,87 %
15.02.2018 17:10 3,8 C 3,9 C 2,8 C 98 % 15 lf 1012,2 hPa 0,0 l/m 0 min 0 min 40 W/m 11,3 km/h (2 Bft) 97,83 %
15.02.2018 17:12 3,8 C 3,9 C 2,8 C 98 % 15 lf 1012,2 hPa 0,0 l/m 0 min 0 min 34 W/m 11,3 km/h (2 Bft) 95,74 %
15.02.2018 17:14 3,8 C 3,9 C 2,8 C 98 % 15 lf 1012,2 hPa 0,0 l/m 0 min 0 min 29 W/m 13,5 km/h (3 Bft) 97,87 %
15.02.2018 17:16 3,8 C 3,9 C 2,2 C 98 % 15 lf 1012,2 hPa 0,0 l/m 0 min 0 min 21 W/m 13,5 km/h (3 Bft) 97,87 %
15.02.2018 17:18 3,8 C 3,9 C 2,2 C 98 % 15 lf 1012,2 hPa 0,0 l/m 0 min 0 min 17 W/m 13,5 km/h (3 Bft) 97,87 %
15.02.2018 17:20 3,8 C 3,9 C 2,2 C 98 % 15 lf 1012,3 hPa 0,0 l/m 0 min 0 min 14 W/m 11,3 km/h (2 Bft) 97,87 %
15.02.2018 17:22 3,8 C 3,9 C 2,2 C 98 % 15 lf 1012,3 hPa 0,0 l/m 0 min 0 min 12 W/m 13,5 km/h (3 Bft) 97,83 %
15.02.2018 17:24 3,8 C 3,9 C 2,2 C 98 % 15 lf 1012,3 hPa 0,0 l/m 0 min 0 min 14 W/m 11,3 km/h (2 Bft) 100,00 %
15.02.2018 17:26 3,8 C 3,9 C 2,2 C 98 % 15 lf 1012,4 hPa 0,0 l/m 0 min 0 min 13 W/m 11,3 km/h (2 Bft) 97,87 %
15.02.2018 17:28 3,8 C 3,3 C 2,2 C 98 % 15 lf 1012,4 hPa 0,0 l/m 0 min 0 min 12 W/m 6,8 km/h (2 Bft) 97,87 %
15.02.2018 17:30 3,8 C 3,3 C 2,2 C 98 % 15 lf 1012,4 hPa 0,0 l/m 0 min 0 min 12 W/m 11,3 km/h (2 Bft) 100,00 %
15.02.2018 17:32 3,8 C 3,3 C 2,2 C 98 % 15 lf 1012,4 hPa 0,0 l/m 0 min 0 min 11 W/m 9,0 km/h (2 Bft) 95,74 %
15.02.2018 17:34 3,8 C 3,3 C 2,2 C 98 % 15 lf 1012,4 hPa 0,0 l/m 0 min 0 min 9 W/m 11,3 km/h (2 Bft) 100,00 %
15.02.2018 17:36 3,8 C 3,9 C 2,2 C 98 % 15 lf 1012,4 hPa 0,0 l/m 0 min 0 min 9 W/m 11,3 km/h (2 Bft) 95,74 %
15.02.2018 17:38 3,8 C 3,9 C 2,2 C 98 % 15 lf 1012,4 hPa 0,0 l/m 0 min 0 min 11 W/m 9,0 km/h (2 Bft) 97,87 %
15.02.2018 17:40 3,8 C 3,9 C 2,2 C 98 % 15 lf 1012,5 hPa 0,0 l/m 0 min 0 min 9 W/m 9,0 km/h (2 Bft) 93,62 %
15.02.2018 17:42 3,8 C 3,3 C 2,2 C 98 % 15 lf 1012,5 hPa 0,0 l/m 0 min 0 min 8 W/m 11,3 km/h (2 Bft) 97,87 %
15.02.2018 17:44 3,8 C 3,3 C 2,2 C 98 % 15 lf 1012,5 hPa 0,0 l/m 0 min 0 min 6 W/m 9,0 km/h (2 Bft) 93,62 %
15.02.2018 17:46 3,8 C 3,3 C 2,2 C 98 % 15 lf 1012,5 hPa 0,0 l/m 0 min 0 min 5 W/m 13,5 km/h (3 Bft) 95,65 %
15.02.2018 17:48 3,8 C 3,3 C 2,2 C 98 % 15 lf 1012,4 hPa 0,0 l/m 0 min 0 min 5 W/m 9,0 km/h (2 Bft) 97,87 %
15.02.2018 17:50 3,8 C 3,3 C 2,2 C 98 % 15 lf 1012,4 hPa 0,0 l/m 0 min 0 min 5 W/m 11,3 km/h (2 Bft) 95,74 %
15.02.2018 17:52 3,8 C 3,3 C 2,2 C 98 % 15 lf 1012,4 hPa 0,0 l/m 0 min 0 min 5 W/m 11,3 km/h (2 Bft) 93,62 %
15.02.2018 17:54 3,8 C 3,3 C 2,2 C 98 % 15 lf 1012,5 hPa 0,0 l/m 0 min 0 min 0 W/m 11,3 km/h (2 Bft) 95,74 %
15.02.2018 17:56 3,8 C 3,9 C 2,2 C 98 % 15 lf 1012,5 hPa 0,0 l/m 0 min 0 min 0 W/m 11,3 km/h (2 Bft) 93,48 %
15.02.2018 17:58 3,8 C 3,9 C 2,2 C 98 % 15 lf 1012,5 hPa 0,0 l/m 0 min 0 min 0 W/m 9,0 km/h (2 Bft) 97,87 %
15.02.2018 18:00 3,8 C 3,9 C 2,2 C 98 % 15 lf 1012,5 hPa 0,0 l/m 0 min 0 min 0 W/m 9,0 km/h (2 Bft) 95,74 %
15.02.2018 18:02 3,8 C 3,9 C 2,2 C 98 % 15 lf 1012,6 hPa 0,0 l/m 0 min 0 min 0 W/m 11,3 km/h (2 Bft) 91,49 %
15.02.2018 18:04 3,8 C 3,9 C 2,8 C 98 % 15 lf 1012,7 hPa 0,0 l/m 0 min 0 min 0 W/m 11,3 km/h (2 Bft) 97,87 %
15.02.2018 18:06 3,8 C 3,9 C 2,8 C 98 % 15 lf 1012,7 hPa 0,0 l/m 0 min 0 min 0 W/m 9,0 km/h (2 Bft) 97,62 %
15.02.2018 18:08 3,8 C 3,9 C 2,8 C 98 % 15 lf 1012,8 hPa 0,0 l/m 0 min 0 min 0 W/m 9,0 km/h (2 Bft) 97,87 %
15.02.2018 18:10 3,8 C 3,9 C 2,2 C 98 % 15 lf 1012,9 hPa 0,0 l/m 0 min 0 min 0 W/m 4,5 km/h (1 Bft) 95,65 %
15.02.2018 18:12 3,8 C 3,9 C 2,2 C 98 % 15 lf 1012,9 hPa 0,0 l/m 0 min 2 min 0 W/m 9,0 km/h (2 Bft) 93,62 %
15.02.2018 18:14 3,9 C 3,9 C 2,8 C 98 % 15 lf 1012,9 hPa 0,0 l/m 0 min 2 min 0 W/m 6,8 km/h (2 Bft) 97,87 %
15.02.2018 18:16 3,9 C 3,9 C 2,8 C 98 % 15 lf 1012,9 hPa 0,0 l/m 0 min 2 min 0 W/m 6,8 km/h (2 Bft) 97,87 %
15.02.2018 18:18 3,9 C 3,9 C 2,8 C 98 % 15 lf 1012,9 hPa 0,0 l/m 0 min 2 min 0 W/m 4,5 km/h (1 Bft) 93,62 %
15.02.2018 18:20 3,9 C 3,9 C 2,8 C 98 % 15 lf 1012,9 hPa 0,0 l/m 0 min 2 min 0 W/m 6,8 km/h (2 Bft) 98,28 %
15.02.2018 18:22 3,9 C 3,9 C 2,8 C 98 % 15 lf 1013,0 hPa 0,0 l/m 0 min 2 min 0 W/m 4,5 km/h (1 Bft) 97,14 %
15.02.2018 18:24 3,9 C 3,9 C 2,8 C 98 % 15 lf 1013,0 hPa 0,0 l/m 0 min 2 min 0 W/m 4,5 km/h (1 Bft) 97,87 %
15.02.2018 18:26 3,9 C 3,9 C 2,2 C 98 % 15 lf 1013,0 hPa 0,0 l/m 0 min 2 min 0 W/m 4,5 km/h (1 Bft) 95,74 %
15.02.2018 18:28 3,9 C 3,9 C 2,8 C 98 % 15 lf 1013,1 hPa 0,0 l/m 0 min 2 min 0 W/m 6,8 km/h (2 Bft) 97,87 %
15.02.2018 18:30 3,9 C 3,9 C 2,8 C 98 % 15 lf 1013,0 hPa 0,0 l/m 0 min 2 min 0 W/m 6,8 km/h (2 Bft) 93,62 %
15.02.2018 18:32 3,9 C 3,9 C 2,8 C 98 % 15 lf 1013,1 hPa 0,0 l/m 0 min 2 min 0 W/m 6,8 km/h (2 Bft) 97,87 %
15.02.2018 18:34 3,9 C 3,9 C 2,8 C 98 % 15 lf 1013,1 hPa 0,0 l/m 0 min 2 min 0 W/m 6,8 km/h (2 Bft) 97,87 %
15.02.2018 18:36 3,9 C 3,9 C 2,8 C 98 % 15 lf 1013,0 hPa 0,0 l/m 0 min 0 min 0 W/m 9,0 km/h (2 Bft) 93,48 %
15.02.2018 18:38 3,9 C 3,9 C 2,8 C 98 % 15 lf 1013,0 hPa 0,0 l/m 0 min 0 min 0 W/m 4,5 km/h (1 Bft) 97,87 %
15.02.2018 18:40 4,0 C 3,9 C 2,8 C 98 % 15 lf 1013,1 hPa 0,0 l/m 0 min 0 min 0 W/m 4,5 km/h (1 Bft) 95,74 %
15.02.2018 18:42 4,0 C 3,9 C 2,2 C 98 % 15 lf 1013,1 hPa 0,0 l/m 0 min 0 min 0 W/m 4,5 km/h (1 Bft) 97,87 %
15.02.2018 18:44 4,0 C 3,9 C 2,2 C 98 % 15 lf 1013,2 hPa 0,0 l/m 0 min 0 min 0 W/m 2,3 km/h (1 Bft) 100,00 %
15.02.2018 18:46 4,0 C 3,9 C 2,2 C 98 % 15 lf 1013,2 hPa 0,0 l/m 0 min 0 min 0 W/m 0,0 km/h (0 Bft) 97,50 %
15.02.2018 18:48 4,0 C 3,9 C 2,2 C 98 % 15 lf 1013,3 hPa 0,2 l/m 0 min 0 min 0 W/m 2,3 km/h (1 Bft) 96,23 %
15.02.2018 18:50 4,0 C 3,9 C 2,2 C 98 % 15 lf 1013,3 hPa 0,0 l/m 0 min 0 min 0 W/m 4,5 km/h (1 Bft) 94,92 %
15.02.2018 18:52 4,1 C 3,9 C 2,2 C 98 % 15 lf 1013,4 hPa 0,0 l/m 0 min 0 min 0 W/m 4,5 km/h (1 Bft) 100,00 %
15.02.2018 18:54 4,1 C 3,9 C 2,2 C 98 % 15 lf 1013,4 hPa 0,0 l/m 0 min 0 min 0 W/m 4,5 km/h (1 Bft) 97,87 %
15.02.2018 18:56 4,1 C 3,9 C 2,2 C 98 % 15 lf 1013,4 hPa 0,0 l/m 0 min 0 min 0 W/m 4,5 km/h (1 Bft) 93,62 %
15.02.2018 18:58 4,1 C 3,9 C 2,2 C 98 % 15 lf 1013,5 hPa 0,0 l/m 0 min 0 min 0 W/m 4,5 km/h (1 Bft) 95,65 %
15.02.2018 19:00 4,1 C 3,9 C 2,2 C 98 % 15 lf 1013,6 hPa 0,0 l/m 0 min 0 min 0 W/m 2,3 km/h (1 Bft) 97,87 %
15.02.2018 19:02 4,1 C 3,9 C 1,7 C 98 % 15 lf 1013,5 hPa 0,0 l/m 0 min 0 min 0 W/m 0,0 km/h (0 Bft) 93,62 %
15.02.2018 19:04 4,1 C 3,9 C 1,7 C 98 % 15 lf 1013,6 hPa 0,0 l/m 0 min 0 min 0 W/m 2,3 km/h (1 Bft) 97,87 %
15.02.2018 19:06 4,1 C 3,9 C 1,7 C 98 % 15 lf 1013,6 hPa 0,0 l/m 0 min 0 min 0 W/m 2,3 km/h (1 Bft) 95,74 %
15.02.2018 19:08 4,1 C 3,9 C 1,7 C 98 % 15 lf 1013,6 hPa 0,0 l/m 0 min 0 min 0 W/m 0,0 km/h (0 Bft) 95,74 %
15.02.2018 19:10 4,1 C 3,9 C 1,7 C 98 % 15 lf 1013,6 hPa 0,0 l/m 0 min 0 min 0 W/m 0,0 km/h (0 Bft) 97,83 %
15.02.2018 19:12 4,1 C 3,9 C 1,1 C 98 % 15 lf 1013,7 hPa 0,0 l/m 0 min 0 min 0 W/m 0,0 km/h (0 Bft) 93,62 %
15.02.2018 19:14 4,1 C 3,9 C 1,1 C 98 % 15 lf 1013,7 hPa 0,0 l/m 0 min 0 min 0 W/m 0,0 km/h (0 Bft) 95,74 %
15.02.2018 19:16 4,1 C 3,9 C 1,7 C 98 % 15 lf 1013,7 hPa 0,0 l/m 0 min 0 min 0 W/m 0,0 km/h (0 Bft) 95,12 %
15.02.2018 19:18 4,1 C 3,9 C 1,7 C 98 % 15 lf 1013,8 hPa 0,0 l/m 0 min 0 min 0 W/m 9,0 km/h (2 Bft) 98,11 %
15.02.2018 19:20 4,1 C 3,9 C 2,2 C 98 % 15 lf 1013,8 hPa 0,0 l/m 0 min 0 min 0 W/m 11,3 km/h (2 Bft) 98,28 %
15.02.2018 19:22 4,1 C 3,9 C 2,2 C 98 % 15 lf 1013,8 hPa 0,0 l/m 0 min 0 min 0 W/m 4,5 km/h (1 Bft) 93,62 %
15.02.2018 19:24 4,1 C 4,4 C 2,2 C 98 % 15 lf 1013,9 hPa 0,0 l/m 0 min 0 min 0 W/m 9,0 km/h (2 Bft) 91,43 %
15.02.2018 19:26 4,1 C 4,4 C 2,2 C 98 % 15 lf 1013,9 hPa 0,0 l/m 0 min 0 min 0 W/m 9,0 km/h (2 Bft) 97,87 %
15.02.2018 19:28 4,1 C 4,4 C 2,2 C 98 % 15 lf 1014,0 hPa 0,0 l/m 0 min 0 min 0 W/m 6,8 km/h (2 Bft) 95,74 %
15.02.2018 19:30 4,1 C 5,0 C 2,2 C 98 % 15 lf 1014,0 hPa 0,0 l/m 0 min 0 min 0 W/m 11,3 km/h (2 Bft) 95,74 %
15.02.2018 19:32 4,2 C 5,0 C 2,8 C 98 % 15 lf 1014,0 hPa 0,0 l/m 0 min 0 min 0 W/m 9,0 km/h (2 Bft) 95,65 %
15.02.2018 19:34 4,2 C 5,0 C 2,8 C 98 % 15 lf 1014,0 hPa 0,0 l/m 0 min 0 min 0 W/m 11,3 km/h (2 Bft) 95,74 %
15.02.2018 19:36 4,3 C 5,0 C 2,8 C 99 % 15 lf 1014,1 hPa 0,0 l/m 0 min 0 min 0 W/m 6,8 km/h (2 Bft) 93,62 %
15.02.2018 19:38 4,3 C 5,0 C 2,8 C 99 % 15 lf 1014,1 hPa 0,0 l/m 0 min 0 min 0 W/m 6,8 km/h (2 Bft) 97,87 %
15.02.2018 19:40 4,4 C 5,0 C 2,2 C 99 % 15 lf 1014,1 hPa 0,0 l/m 0 min 0 min 0 W/m 9,0 km/h (2 Bft) 95,74 %
15.02.2018 19:42 4,4 C 5,0 C 2,2 C 99 % 15 lf 1014,1 hPa 0,0 l/m 0 min 0 min 0 W/m 9,0 km/h (2 Bft) 93,62 %
15.02.2018 19:44 4,4 C 5,0 C 2,2 C 98 % 15 lf 1014,2 hPa 0,2 l/m 0 min 0 min 0 W/m 11,3 km/h (2 Bft) 97,83 %
15.02.2018 19:46 4,5 C 5,0 C 2,2 C 98 % 15 lf 1014,4 hPa 0,0 l/m 0 min 0 min 0 W/m 11,3 km/h (2 Bft) 100,00 %
15.02.2018 19:48 4,6 C 5,0 C 2,2 C 98 % 15 lf 1014,4 hPa 0,0 l/m 0 min 0 min 0 W/m 9,0 km/h (2 Bft) 94,34 %
15.02.2018 19:50 4,7 C 5,0 C 2,2 C 99 % 15 lf 1014,5 hPa 0,0 l/m 0 min 0 min 0 W/m 6,8 km/h (2 Bft) 98,31 %
15.02.2018 19:52 4,7 C 5,0 C 2,2 C 99 % 15 lf 1014,5 hPa 0,0 l/m 0 min 0 min 0 W/m 6,8 km/h (2 Bft) 97,14 %
15.02.2018 19:54 4,7 C 4,4 C 1,7 C 99 % 15 lf 1014,5 hPa 0,0 l/m 0 min 0 min 0 W/m 9,0 km/h (2 Bft) 97,87 %
15.02.2018 19:56 4,7 C 4,4 C 1,7 C 99 % 15 lf 1014,5 hPa 0,0 l/m 0 min 0 min 0 W/m 9,0 km/h (2 Bft) 100,00 %
15.02.2018 19:58 4,8 C 4,4 C 1,7 C 99 % 15 lf 1014,5 hPa 0,0 l/m 0 min 0 min 0 W/m 6,8 km/h (2 Bft) 95,74 %
15.02.2018 20:00 4,8 C 4,4 C 1,1 C 99 % 15 lf 1014,5 hPa 0,0 l/m 0 min 0 min 0 W/m 6,8 km/h (2 Bft) 95,74 %
15.02.2018 20:02 4,8 C 4,4 C 1,1 C 99 % 15 lf 1014,6 hPa 0,0 l/m 0 min 0 min 0 W/m 4,5 km/h (1 Bft) 95,74 %
15.02.2018 20:04 4,8 C 4,4 C 0,6 C 99 % 15 lf 1014,7 hPa 0,0 l/m 0 min 0 min 0 W/m 4,5 km/h (1 Bft) 97,87 %
15.02.2018 20:06 4,9 C 3,9 C 0,6 C 99 % 15 lf 1014,7 hPa 0,0 l/m 0 min 0 min 0 W/m 6,8 km/h (2 Bft) 91,49 %
15.02.2018 20:08 4,9 C 3,9 C 0,6 C 99 % 15 lf 1014,6 hPa 0,0 l/m 0 min 0 min 0 W/m 9,0 km/h (2 Bft) 97,83 %
15.02.2018 20:10 4,9 C 3,9 C 0,6 C 99 % 15 lf 1014,7 hPa 0,0 l/m 0 min 0 min 0 W/m 6,8 km/h (2 Bft) 95,74 %
15.02.2018 20:12 4,9 C 3,9 C 0,6 C 99 % 15 lf 1014,8 hPa 0,0 l/m 0 min 0 min 0 W/m 6,8 km/h (2 Bft) 93,62 %
15.02.2018 20:14 4,9 C 3,9 C 0,6 C 99 % 15 lf 1014,7 hPa 0,0 l/m 0 min 0 min 0 W/m 6,8 km/h (2 Bft) 95,74 %
15.02.2018 20:16 4,9 C 3,9 C 0,0 C 99 % 15 lf 1014,8 hPa 0,0 l/m 0 min 0 min 0 W/m 4,5 km/h (1 Bft) 97,62 %
15.02.2018 20:18 4,9 C 3,9 C 0,0 C 99 % 15 lf 1014,9 hPa 0,0 l/m 0 min 0 min 0 W/m 6,8 km/h (2 Bft) 93,62 %
15.02.2018 20:20 4,9 C 3,3 C 0,0 C 99 % 15 lf 1014,9 hPa 0,0 l/m 0 min 0 min 0 W/m 0,0 km/h (0 Bft) 94,83 %
15.02.2018 20:22 4,8 C 3,3 C 0,0 C 99 % 15 lf 1014,9 hPa 0,0 l/m 0 min 0 min 0 W/m 4,5 km/h (1 Bft) 97,14 %
15.02.2018 20:24 4,8 C 3,3 C 0,0 C 99 % 15 lf 1014,9 hPa 0,0 l/m 0 min 0 min 0 W/m 4,5 km/h (1 Bft) 97,87 %
15.02.2018 20:26 4,8 C 3,3 C -0,6 C 99 % 15 lf 1015,0 hPa 0,0 l/m 0 min 0 min 0 W/m 4,5 km/h (1 Bft) 97,87 %
15.02.2018 20:28 4,8 C 2,8 C -0,6 C 99 % 15 lf 1015,0 hPa 0,0 l/m 0 min 0 min 0 W/m 4,5 km/h (1 Bft) 97,87 %
15.02.2018 20:30 4,8 C 2,8 C -0,6 C 99 % 15 lf 1015,1 hPa 0,0 l/m 0 min 0 min 0 W/m 2,3 km/h (1 Bft) 97,87 %
15.02.2018 20:32 4,7 C 2,8 C -0,6 C 99 % 15 lf 1015,0 hPa 0,0 l/m 0 min 0 min 0 W/m 4,5 km/h (1 Bft) 97,83 %
15.02.2018 20:34 4,7 C 2,8 C -1,1 C 99 % 15 lf 1015,1 hPa 0,0 l/m 0 min 0 min 0 W/m 2,3 km/h (1 Bft) 91,49 %
15.02.2018 20:36 4,6 C 2,8 C -0,6 C 99 % 15 lf 1015,1 hPa 0,0 l/m 0 min 0 min 0 W/m 0,0 km/h (0 Bft) 97,87 %
15.02.2018 20:38 4,6 C 2,8 C -1,1 C 98 % 15 lf 1015,1 hPa 0,0 l/m 0 min 0 min 0 W/m 0,0 km/h (0 Bft) 97,87 %
15.02.2018 20:40 4,5 C 2,2 C -1,1 C 98 % 15 lf 1015,2 hPa 0,0 l/m 0 min 0 min 0 W/m 0,0 km/h (0 Bft) 97,87 %
15.02.2018 20:42 4,4 C 2,8 C -1,1 C 98 % 15 lf 1015,2 hPa 0,0 l/m 0 min 0 min 0 W/m 0,0 km/h (0 Bft) 95,74 %
15.02.2018 20:44 4,4 C 2,8 C -1,1 C 99 % 15 lf 1015,2 hPa 0,0 l/m 0 min 0 min 0 W/m 2,3 km/h (1 Bft) 95,65 %
15.02.2018 20:46 4,3 C 2,8 C -1,1 C 99 % 15 lf 1015,2 hPa 0,0 l/m 0 min 0 min 0 W/m 6,8 km/h (2 Bft) 95,83 %
15.02.2018 20:48 4,3 C 2,8 C -1,1 C 99 % 15 lf 1015,3 hPa 0,0 l/m 0 min 0 min 0 W/m 4,5 km/h (1 Bft) 89,36 %
15.02.2018 20:50 4,2 C 2,8 C -1,1 C 99 % 15 lf 1015,2 hPa 0,0 l/m 0 min 0 min 0 W/m 4,5 km/h (1 Bft) 93,22 %
15.02.2018 20:52 4,2 C 2,8 C -1,1 C 98 % 15 lf 1015,2 hPa 0,0 l/m 0 min 0 min 0 W/m 4,5 km/h (1 Bft) 94,29 %
15.02.2018 20:54 4,2 C 2,8 C -1,1 C 98 % 15 lf 1015,2 hPa 0,0 l/m 0 min 0 min 0 W/m 4,5 km/h (1 Bft) 93,48 %
15.02.2018 20:56 4,1 C 2,8 C -1,7 C 98 % 15 lf 1015,3 hPa 0,0 l/m 0 min 0 min 0 W/m 4,5 km/h (1 Bft) 95,74 %
15.02.2018 20:58 4,1 C 2,8 C -1,7 C 98 % 15 lf 1015,3 hPa 0,0 l/m 0 min 0 min 0 W/m 4,5 km/h (1 Bft) 95,74 %
15.02.2018 21:00 4,0 C 2,8 C -1,7 C 98 % 15 lf 1015,3 hPa 0,0 l/m 0 min 0 min 0 W/m 0,0 km/h (0 Bft) 93,62 %
15.02.2018 21:02 3,9 C 2,2 C -1,7 C 98 % 15 lf 1015,3 hPa 0,0 l/m 0 min 0 min 0 W/m 0,0 km/h (0 Bft) 93,62 %
15.02.2018 21:04 3,9 C 2,2 C -1,7 C 98 % 15 lf 1015,4 hPa 0,0 l/m 0 min 0 min 0 W/m 0,0 km/h (0 Bft) 95,74 %
15.02.2018 21:06 3,8 C 2,2 C -1,7 C 98 % 15 lf 1015,4 hPa 0,0 l/m 0 min 0 min 0 W/m 0,0 km/h (0 Bft) 95,65 %
15.02.2018 21:08 3,7 C 2,2 C -1,7 C 98 % 15 lf 1015,4 hPa 0,0 l/m 0 min 0 min 0 W/m 0,0 km/h (0 Bft) 97,87 %
15.02.2018 21:10 3,7 C 2,2 C -1,7 C 98 % 15 lf 1015,4 hPa 0,0 l/m 0 min 0 min 0 W/m 0,0 km/h (0 Bft) 97,87 %
15.02.2018 21:12 3,6 C 2,2 C -1,7 C 98 % 15 lf 1015,4 hPa 0,0 l/m 0 min 0 min 0 W/m 0,0 km/h (0 Bft) 97,87 %
15.02.2018 21:14 3,6 C 2,2 C -1,7 C 98 % 15 lf 1015,5 hPa 0,0 l/m 0 min 0 min 0 W/m 0,0 km/h (0 Bft) 91,49 %
15.02.2018 21:16 3,5 C 2,2 C -1,7 C 98 % 15 lf 1015,4 hPa 0,0 l/m 0 min 0 min 0 W/m 0,0 km/h (0 Bft) 95,74 %
15.02.2018 21:18 3,4 C 2,2 C -1,7 C 98 % 15 lf 1015,5 hPa 0,0 l/m 0 min 0 min 0 W/m 0,0 km/h (0 Bft) 97,83 %
15.02.2018 21:20 3,4 C 2,2 C -1,7 C 98 % 15 lf 1015,5 hPa 0,0 l/m 0 min 0 min 0 W/m 0,0 km/h (0 Bft) 89,83 %
15.02.2018 21:22 3,3 C 1,7 C -1,7 C 98 % 15 lf 1015,5 hPa 0,0 l/m 0 min 0 min 0 W/m 0,0 km/h (0 Bft) 94,29 %
15.02.2018 21:24 3,3 C 1,7 C -1,7 C 98 % 15 lf 1015,5 hPa 0,0 l/m 0 min 0 min 0 W/m 0,0 km/h (0 Bft) 95,74 %
15.02.2018 21:26 3,2 C 2,2 C -1,7 C 98 % 15 lf 1015,6 hPa 0,0 l/m 0 min 0 min 0 W/m 0,0 km/h (0 Bft) 97,87 %
15.02.2018 21:28 3,2 C 2,2 C -1,7 C 98 % 15 lf 1015,6 hPa 0,0 l/m 0 min 0 min 0 W/m 0,0 km/h (0 Bft) 97,87 %
15.02.2018 21:30 3,1 C 2,2 C -1,7 C 98 % 15 lf 1015,6 hPa 0,0 l/m 0 min 0 min 0 W/m 0,0 km/h (0 Bft) 97,83 %
15.02.2018 21:32 3,1 C 1,7 C -1,7 C 98 % 15 lf 1015,5 hPa 0,0 l/m 0 min 0 min 0 W/m 0,0 km/h (0 Bft) 95,74 %
15.02.2018 21:34 3,0 C 1,7 C -1,7 C 98 % 15 lf 1015,6 hPa 0,0 l/m 0 min 0 min 0 W/m 6,8 km/h (2 Bft) 95,74 %
15.02.2018 21:36 2,9 C 1,7 C -1,7 C 98 % 15 lf 1015,6 hPa 0,0 l/m 0 min 0 min 0 W/m 9,0 km/h (2 Bft) 93,62 %
15.02.2018 21:38 2,9 C 1,7 C -1,7 C 98 % 15 lf 1015,6 hPa 0,0 l/m 0 min 0 min 0 W/m 9,0 km/h (2 Bft) 93,62 %
15.02.2018 21:40 2,8 C 1,7 C -2,2 C 98 % 15 lf 1015,6 hPa 0,0 l/m 0 min 0 min 0 W/m 6,8 km/h (2 Bft) 95,74 %
15.02.2018 21:42 2,8 C 1,7 C -2,2 C 98 % 15 lf 1015,7 hPa 0,0 l/m 0 min 0 min 0 W/m 6,8 km/h (2 Bft) 93,48 %
15.02.2018 21:44 2,8 C 1,1 C -1,7 C 98 % 15 lf 1015,8 hPa 0,0 l/m 0 min 0 min 0 W/m 6,8 km/h (2 Bft) 93,62 %
15.02.2018 21:46 2,7 C 1,1 C -1,7 C 98 % 15 lf 1015,7 hPa 0,0 l/m 0 min 0 min 0 W/m 6,8 km/h (2 Bft) 93,62 %
15.02.2018 21:48 2,7 C 1,1 C -1,7 C 98 % 15 lf 1015,8 hPa 0,0 l/m 0 min 0 min 0 W/m 6,8 km/h (2 Bft) 95,74 %
15.02.2018 21:50 2,7 C 1,1 C -1,7 C 98 % 15 lf 1015,9 hPa 0,0 l/m 0 min 0 min 0 W/m 6,8 km/h (2 Bft) 94,83 %
15.02.2018 21:52 2,6 C 1,1 C -1,7 C 98 % 15 lf 1015,8 hPa 0,0 l/m 0 min 0 min 0 W/m 4,5 km/h (1 Bft) 94,44 %
15.02.2018 21:54 2,6 C 1,1 C -1,7 C 98 % 15 lf 1015,9 hPa 0,0 l/m 0 min 0 min 0 W/m 4,5 km/h (1 Bft) 95,65 %
15.02.2018 21:56 2,6 C 1,1 C -1,7 C 98 % 15 lf 1015,9 hPa 0,0 l/m 0 min 0 min 0 W/m 4,5 km/h (1 Bft) 91,49 %
15.02.2018 21:58 2,5 C 1,1 C -1,7 C 98 % 15 lf 1015,9 hPa 0,0 l/m 0 min 0 min 0 W/m 4,5 km/h (1 Bft) 95,74 %
15.02.2018 22:00 2,5 C 0,6 C -1,7 C 98 % 15 lf 1015,9 hPa 0,0 l/m 0 min 0 min 0 W/m 4,5 km/h (1 Bft) 93,62 %
15.02.2018 22:02 2,4 C 0,6 C -1,7 C 98 % 15 lf 1016,1 hPa 0,0 l/m 0 min 0 min 0 W/m 4,5 km/h (1 Bft) 93,62 %
15.02.2018 22:04 2,4 C 0,6 C -1,7 C 98 % 15 lf 1016,1 hPa 0,0 l/m 0 min 0 min 0 W/m 4,5 km/h (1 Bft) 93,48 %
15.02.2018 22:06 2,4 C 1,1 C -1,7 C 98 % 15 lf 1016,2 hPa 0,0 l/m 0 min 0 min 0 W/m 4,5 km/h (1 Bft) 97,87 %
15.02.2018 22:08 2,3 C 0,6 C -1,7 C 98 % 15 lf 1016,2 hPa 0,0 l/m 0 min 0 min 0 W/m 4,5 km/h (1 Bft) 95,74 %
15.02.2018 22:10 2,3 C 0,6 C -1,7 C 98 % 15 lf 1016,3 hPa 0,0 l/m 0 min 0 min 0 W/m 4,5 km/h (1 Bft) 97,87 %
15.02.2018 22:12 2,2 C 0,6 C -1,7 C 98 % 15 lf 1016,3 hPa 0,0 l/m 0 min 0 min 0 W/m 2,3 km/h (1 Bft) 95,74 %
15.02.2018 22:14 2,2 C 0,6 C -1,7 C 98 % 15 lf 1016,2 hPa 0,0 l/m 0 min 0 min 0 W/m 6,8 km/h (2 Bft) 95,74 %
15.02.2018 22:16 2,2 C 0,6 C -1,7 C 98 % 15 lf 1016,3 hPa 0,0 l/m 0 min 0 min 0 W/m 4,5 km/h (1 Bft) 97,83 %
15.02.2018 22:18 2,1 C 0,6 C -1,7 C 98 % 15 lf 1016,4 hPa 0,0 l/m 0 min 0 min 0 W/m 4,5 km/h (1 Bft) 97,87 %
15.02.2018 22:20 2,1 C 0,6 C -1,7 C 98 % 15 lf 1016,4 hPa 0,0 l/m 0 min 0 min 0 W/m 2,3 km/h (1 Bft) 96,61 %
15.02.2018 22:22 2,0 C 0,6 C -1,7 C 98 % 15 lf 1016,3 hPa 0,0 l/m 0 min 0 min 0 W/m 0,0 km/h (0 Bft) 97,14 %
15.02.2018 22:24 1,9 C 0,0 C -1,7 C 98 % 15 lf 1016,4 hPa 0,0 l/m 0 min 0 min 0 W/m 2,3 km/h (1 Bft) 97,87 %
15.02.2018 22:26 1,9 C 0,6 C -1,7 C 98 % 15 lf 1016,4 hPa 0,0 l/m 0 min 0 min 0 W/m 2,3 km/h (1 Bft) 100,00 %
15.02.2018 22:28 1,8 C 0,6 C -1,7 C 98 % 15 lf 1016,4 hPa 0,0 l/m 0 min 0 min 0 W/m 6,8 km/h (2 Bft) 97,83 %
15.02.2018 22:30 1,8 C 0,6 C -1,7 C 98 % 15 lf 1016,5 hPa 0,0 l/m 0 min 0 min 0 W/m 4,5 km/h (1 Bft) 97,87 %
15.02.2018 22:32 1,7 C 0,6 C -1,7 C 98 % 15 lf 1016,4 hPa 0,0 l/m 0 min 0 min 0 W/m 0,0 km/h (0 Bft) 97,87 %
15.02.2018 22:34 1,7 C 0,6 C -1,7 C 98 % 15 lf 1016,5 hPa 0,0 l/m 0 min 0 min 0 W/m 2,3 km/h (1 Bft) 97,87 %
15.02.2018 22:36 1,6 C 0,6 C -1,7 C 98 % 15 lf 1016,4 hPa 0,0 l/m 0 min 0 min 0 W/m 4,5 km/h (1 Bft) 100,00 %
15.02.2018 22:38 1,6 C 0,0 C -1,7 C 98 % 15 lf 1016,5 hPa 0,0 l/m 0 min 0 min 0 W/m 11,3 km/h (2 Bft) 100,00 %
15.02.2018 22:40 1,6 C 0,0 C -1,7 C 98 % 15 lf 1016,5 hPa 0,0 l/m 0 min 0 min 0 W/m 2,3 km/h (1 Bft) 100,00 %
15.02.2018 22:42 1,5 C 0,6 C -1,7 C 98 % 15 lf 1016,5 hPa 0,0 l/m 0 min 0 min 0 W/m 4,5 km/h (1 Bft) 95,74 %
15.02.2018 22:44 1,4 C 0,6 C -1,7 C 98 % 15 lf 1016,6 hPa 0,0 l/m 0 min 0 min 0 W/m 4,5 km/h (1 Bft) 100,00 %
15.02.2018 22:46 1,4 C 0,0 C -1,7 C 98 % 15 lf 1016,6 hPa 0,0 l/m 0 min 0 min 0 W/m 4,5 km/h (1 Bft) 93,62 %
15.02.2018 22:48 1,4 C 0,6 C -1,7 C 98 % 15 lf 1016,6 hPa 0,0 l/m 0 min 0 min 0 W/m 4,5 km/h (1 Bft) 100,00 %
15.02.2018 22:50 1,3 C 0,6 C -1,7 C 98 % 15 lf 1016,7 hPa 0,0 l/m 0 min 0 min 0 W/m 6,8 km/h (2 Bft) 100,00 %
15.02.2018 22:52 1,3 C 0,6 C -1,7 C 98 % 15 lf 1016,7 hPa 0,0 l/m 0 min 0 min 0 W/m 0,0 km/h (0 Bft) 100,00 %
15.02.2018 22:54 1,3 C 0,6 C -1,7 C 98 % 15 lf 1016,7 hPa 0,0 l/m 0 min 0 min 0 W/m 2,3 km/h (1 Bft) 97,87 %
15.02.2018 22:56 1,2 C 0,6 C -1,7 C 98 % 15 lf 1016,7 hPa 0,0 l/m 0 min 0 min 0 W/m 6,8 km/h (2 Bft) 97,87 %
15.02.2018 22:58 1,2 C 0,6 C -1,7 C 98 % 15 lf 1016,8 hPa 0,0 l/m 0 min 0 min 0 W/m 4,5 km/h (1 Bft) 97,87 %
15.02.2018 23:00 1,2 C 0,0 C -1,7 C 98 % 15 lf 1016,8 hPa 0,0 l/m 0 min 0 min 0 W/m 6,8 km/h (2 Bft) 100,00 %
15.02.2018 23:02 1,1 C 0,0 C -1,7 C 98 % 15 lf 1016,7 hPa 0,0 l/m 0 min 0 min 0 W/m 6,8 km/h (2 Bft) 100,00 %
15.02.2018 23:04 1,1 C 0,0 C -2,2 C 98 % 15 lf 1016,8 hPa 0,0 l/m 0 min 0 min 0 W/m 6,8 km/h (2 Bft) 100,00 %
15.02.2018 23:06 1,1 C 0,0 C -1,7 C 98 % 15 lf 1016,9 hPa 0,0 l/m 0 min 0 min 0 W/m 2,3 km/h (1 Bft) 97,87 %
15.02.2018 23:08 1,0 C 0,0 C -2,2 C 98 % 15 lf 1016,9 hPa 0,0 l/m 0 min 0 min 0 W/m 4,5 km/h (1 Bft) 100,00 %
15.02.2018 23:10 1,0 C 0,0 C -2,2 C 98 % 15 lf 1016,9 hPa 0,0 l/m 0 min 0 min 0 W/m 4,5 km/h (1 Bft) 100,00 %
15.02.2018 23:12 1,0 C 0,0 C -2,2 C 98 % 15 lf 1017,0 hPa 0,0 l/m 0 min 0 min 0 W/m 6,8 km/h (2 Bft) 97,87 %
15.02.2018 23:14 0,9 C 0,0 C -2,2 C 98 % 15 lf 1016,9 hPa 0,0 l/m 0 min 0 min 0 W/m 6,8 km/h (2 Bft) 100,00 %
15.02.2018 23:16 0,9 C 0,0 C -2,2 C 98 % 15 lf 1016,9 hPa 0,0 l/m 0 min 0 min 0 W/m 9,0 km/h (2 Bft) 100,00 %
15.02.2018 23:18 0,9 C 0,0 C -2,2 C 98 % 15 lf 1016,9 hPa 0,0 l/m 0 min 0 min 0 W/m 6,8 km/h (2 Bft) 97,87 %
15.02.2018 23:20 0,9 C 0,0 C -2,2 C 98 % 15 lf 1017,0 hPa 0,0 l/m 0 min 0 min 0 W/m 9,0 km/h (2 Bft) 98,31 %
15.02.2018 23:22 0,8 C 0,0 C -2,2 C 98 % 15 lf 1017,0 hPa 0,0 l/m 0 min 0 min 0 W/m 4,5 km/h (1 Bft) 100,00 %
15.02.2018 23:24 0,8 C 0,0 C -2,2 C 98 % 15 lf 1017,0 hPa 0,0 l/m 0 min 0 min 0 W/m 9,0 km/h (2 Bft) 95,74 %
15.02.2018 23:26 0,8 C 0,0 C -2,2 C 98 % 15 lf 1017,0 hPa 0,0 l/m 0 min 0 min 0 W/m 6,8 km/h (2 Bft) 93,48 %
15.02.2018 23:28 0,7 C 0,0 C -2,2 C 98 % 15 lf 1017,1 hPa 0,0 l/m 0 min 0 min 0 W/m 6,8 km/h (2 Bft) 95,74 %
15.02.2018 23:30 0,7 C 0,0 C -2,2 C 98 % 15 lf 1017,1 hPa 0,0 l/m 0 min 0 min 0 W/m 6,8 km/h (2 Bft) 93,62 %
15.02.2018 23:32 0,7 C 0,0 C -2,2 C 98 % 15 lf 1017,1 hPa 0,0 l/m 0 min 0 min 0 W/m 6,8 km/h (2 Bft) 97,87 %
15.02.2018 23:34 0,7 C 0,0 C -2,2 C 98 % 15 lf 1017,2 hPa 0,0 l/m 0 min 0 min 0 W/m 6,8 km/h (2 Bft) 93,62 %
15.02.2018 23:36 0,7 C 0,0 C -2,2 C 98 % 15 lf 1017,2 hPa 0,0 l/m 0 min 0 min 0 W/m 4,5 km/h (1 Bft) 89,36 %
15.02.2018 23:38 0,6 C 0,0 C -2,2 C 98 % 15 lf 1017,1 hPa 0,0 l/m 0 min 0 min 0 W/m 9,0 km/h (2 Bft) 95,65 %
15.02.2018 23:40 0,6 C 0,0 C -2,2 C 98 % 15 lf 1017,1 hPa 0,0 l/m 0 min 0 min 0 W/m 6,8 km/h (2 Bft) 93,62 %
15.02.2018 23:42 0,6 C 0,6 C -2,2 C 98 % 15 lf 1017,1 hPa 0,0 l/m 0 min 0 min 0 W/m 11,3 km/h (2 Bft) 95,74 %
15.02.2018 23:44 0,6 C 0,6 C -2,2 C 98 % 15 lf 1017,1 hPa 0,0 l/m 0 min 0 min 0 W/m 9,0 km/h (2 Bft) 95,74 %
15.02.2018 23:46 0,6 C 0,6 C -2,2 C 98 % 15 lf 1017,2 hPa 0,0 l/m 0 min 0 min 0 W/m 9,0 km/h (2 Bft) 95,74 %
15.02.2018 23:48 0,6 C 0,6 C -1,7 C 98 % 15 lf 1017,2 hPa 0,0 l/m 0 min 0 min 0 W/m 9,0 km/h (2 Bft) 93,62 %
15.02.2018 23:50 0,7 C 0,6 C -2,2 C 98 % 15 lf 1017,2 hPa 0,0 l/m 0 min 0 min 0 W/m 4,5 km/h (1 Bft) 91,38 %
15.02.2018 23:52 0,7 C 0,0 C -2,2 C 98 % 15 lf 1017,3 hPa 0,0 l/m 0 min 0 min 0 W/m 2,3 km/h (1 Bft) 94,29 %
15.02.2018 23:54 0,7 C 0,0 C -2,2 C 98 % 15 lf 1017,3 hPa 0,0 l/m 0 min 0 min 0 W/m 4,5 km/h (1 Bft) 91,49 %
15.02.2018 23:56 0,7 C 0,0 C -2,2 C 98 % 15 lf 1017,3 hPa 0,0 l/m 0 min 0 min 0 W/m 4,5 km/h (1 Bft) 91,49 %
15.02.2018 23:58 0,7 C 0,0 C -2,8 C 98 % 15 lf 1017,4 hPa 0,0 l/m 0 min 0 min 0 W/m 4,5 km/h (1 Bft) 91,49 %
_ Min-Zeit 05:50 04:58 23:58 00:00 00:00 07:02 - - - - 18:46 04:05
Minimum _ 0,1 C -0,6 C -2,8 C 66 % 0 lf 1008,8 hPa - - - - 0,0 km/h (0 Bft) 3,51 %
_ Max-Zeit 20:06 19:30 16:28 19:36 04:42 23:58 10:06 17:04 05:40 12:34 07:16 00:22
Maximum _ 4,9 C 5,0 C 2,8 C 99 % 15 lf 1017,4 hPa 0,2 l/m 2 min 5 min 99 W/m 54,1 km/h
S (7 Bft)
100,00 %
Durchschnitt _ 2,0 C 1,7 C 0,2 C 92 % 12 lf 1011,6 hPa #4,6 l/m #6 min. #6:35 h 44 W/m 22,5 km/h (4 Bft) 95,98 %
© 2018 W. Hausmann